Calls for Service

Disclaimer: This information is not intended to be used as official crime data. This program does not provide information about all crimes, and excludes specific incidents such as sexual assaults and child abuse. The City of Conway Police Department makes every effort to produce and publish current and accurate information. No warranties, expressed or implied, are provided for the data herein, its use, or its interpretation. The services provided are for informational purposes only and should not be relied on for any type of legal action.

Loading calls...
Showing calls from previous 10 days
Call Number Case Number Address Call Time Incident Type
17-0604999 3505 SUNGLO DR Jun 29 2017 12:11:35:990AM CHECKING BUILDING
17-0604998 2616 BRUCE ST Jun 28 2017 11:57:04:993PM SUSPICIOUS PERSON
17-0604996 1900 KEATHLEY DR Jun 28 2017 11:48:41:927PM BATTERY REPORT
17-0604995 1555 EXCHANGE AV Jun 28 2017 11:40:27:950PM SERVING SUBPOENA
17-0604994 475 ROBINS ST Jun 28 2017 11:18:07:840PM SHOTS FIRED
17-0604991 3031 PRINCE ST Jun 28 2017 10:57:27:360PM CHECKING PERSON
17-0604990 534 BRUCE ST Jun 28 2017 10:56:56:123PM SUSPICIOUS PERSON
17-0604989 401 2ND ST Jun 28 2017 10:56:45:437PM CHECKING PERSON
17-0604988 3065 PRINCE ST Jun 28 2017 10:40:35:550PM AGENCY ASSIST
17-0604986 600 5TH AV Jun 28 2017 10:35:51:683PM CHECKING PERSON
17-0604985 3202 PRINCE ST Jun 28 2017 10:35:08:277PM CHECK ON THE WELFARE
17-0604984 17-07523 740 S SALEM RD Jun 28 2017 10:26:54:490PM FORGERY
17-0604980 1570 GARDENIA Jun 28 2017 09:52:12:117PM SUPPLEMENT REPORT CALL
17-0604978 2010 RICH SMITH LN Jun 28 2017 09:35:01:260PM VEHICLE TOW
17-0604976 17-07521 2235 DAVE WARD DR Jun 28 2017 09:11:50:087PM FORGERY
17-0604972 17-07520 2603 DAVE WARD DR Jun 28 2017 08:59:24:737PM ACCIDENT - PROPERTY DAMAGE
17-0604969 17-07519 3800 COLLEGE AV Jun 28 2017 08:34:46:103PM THEFT OF PROPERTY
17-0604968 17-07517 2302 COLLEGE AV Jun 28 2017 08:15:05:790PM BREAKING OR ENTERING
17-0604966 17-07516 2050 DAVE WARD DR Jun 28 2017 08:10:42:717PM CRIMINAL MISCHIEF
17-0604965 1010 E OAK ST Jun 28 2017 08:04:17:267PM CHECK ON THE WELFARE
17-0604958 17-07514 2425 SANDERS ST Jun 28 2017 06:56:12:170PM ACCIDENT - PRIVATE PROPERTY
17-0604957 2295 NATURE TRL Jun 28 2017 06:55:52:947PM ATTEMPT TO CONTACT
17-0604956 2164 HARKRIDER ST Jun 28 2017 06:51:11:617PM CHECK ON THE WELFARE
17-0604955 17-07513 2101 TYLER ST Jun 28 2017 06:42:34:200PM BURGLARY
17-0604953 17-07512 895 OAK ST Jun 28 2017 06:15:37:227PM FRAUD
17-0604952 3900 DAVE WARD DR Jun 28 2017 06:07:33:640PM CHECK ON THE WELFARE
17-0604950 2730 DAVE WARD DR Jun 28 2017 05:42:24:273PM TRESPASSING
17-0604949 1001 MCNUTT RD Jun 28 2017 05:36:53:207PM ATTEMPT TO CONTACT
17-0604948 17-07511 655 ELSINGER BLVD Jun 28 2017 05:32:51:540PM SHOPLIFTING
17-0604947 1099 SIEBENMORGEN RD Jun 28 2017 05:25:47:560PM STALLED VEHICLE
17-0604946 1111 MAIN ST Jun 28 2017 05:11:38:607PM SUSPICIOUS PERSON
17-0604945 475 ROBINS ST Jun 28 2017 05:00:53:840PM TERRORISTIC THREATENING
17-0604944 17-07509 475 ROBINS ST Jun 28 2017 04:50:57:440PM ACCIDENT - PROPERTY DAMAGE
17-0604941 100 SKYLINE DR Jun 28 2017 04:07:22:357PM PROPERTY DAMAGE
17-0604938 1824 HOGAN LN Jun 28 2017 03:58:55:250PM CHECK ON THE WELFARE
17-0604937 1525 DAVIS ST Jun 28 2017 03:58:17:110PM CIVIL MATTER
17-0604935 17-07508 1161 OLD MORRILTON HWY Jun 28 2017 03:46:14:370PM DOMESTIC DISTURBANCE
17-0604933 715 INGRAM ST Jun 28 2017 03:40:50:913PM SUPPLEMENT REPORT CALL
17-0604931 17-07507 145 RAMBLING BROOK DR Jun 28 2017 03:36:03:390PM INTERFERENCE WITH CUSTODY
17-0604929 17-07505 3715 PRINCE ST Jun 28 2017 03:26:03:080PM K9 SEARCH-REPORT
17-0604923 475 ROBINS ST Jun 28 2017 02:44:54:353PM TERRORISTIC THREATENING
17-0604921 1555 EXCHANGE AV Jun 28 2017 02:41:27:540PM SERVING SUBPOENA
17-0604920 17-07504 2730 DAVE WARD DR Jun 28 2017 02:39:30:250PM TRESPASSING
17-0604915 475 ROBINS ST Jun 28 2017 02:21:51:883PM THEFT OF PROPERTY
17-0604913 8 STAGECOACH RD Jun 28 2017 01:55:13:437PM OPEN DOOR/WINDOW/FENCE
17-0604912 1915 RICH SMITH LN Jun 28 2017 01:48:00:960PM CIVIL STAND BY
17-0604906 2420 BROADVIEW AV Jun 28 2017 01:29:14:473PM FOUND PROPERTY
17-0604905 17-07502 1775 OLD MORRILTON HWY Jun 28 2017 01:27:34:320PM ACCIDENT - PROPERTY DAMAGE
17-0604903 2730 DAVE WARD DR Jun 28 2017 01:02:08:130PM AGENCY ASSIST
17-0604902 17-07501 475 ROBINS ST Jun 28 2017 01:01:00:900PM CRIMINAL MISCHIEF
17-0604899 2730 DAVE WARD DR Jun 28 2017 12:44:27:530PM DOMESTIC DISTURBANCE
17-0604898 17-07499 855 SALEM RD Jun 28 2017 12:34:09:633PM ACCIDENT - PRIVATE PROPERTY
17-0604896 475 ROBINS ST Jun 28 2017 12:24:10:343PM SUSPICIOUS VEHICLE
17-0604894 1000 E SIEBENMORGEN RD Jun 28 2017 12:06:17:877PM INTERFERENCE WITH CUSTODY
17-0604893 445 2ND AV Jun 28 2017 11:58:51:610AM THEFT OF IDENTITY
17-0604891 2010 JOHNSTON AV Jun 28 2017 11:52:53:193AM TRESPASSING
17-0604890 4315 TREE HOUSE DR Jun 28 2017 11:52:22:460AM SUPPLEMENT REPORT CALL
17-0604886 17-07494 545 E DAVE WARD DR Jun 28 2017 11:36:00:200AM ACCIDENT - PROPERTY DAMAGE
17-0604884 2214 LOOKOUT AV Jun 28 2017 11:23:47:107AM DOMESTIC DISTURBANCE
17-0604883 17-07495 100 BROOKSIDE DR Jun 28 2017 11:21:25:130AM THEFT OF PROPERTY
17-0604881 17-07493 1155 CUMULUS DR Jun 28 2017 11:11:18:297AM SUSPICIOUS VEHICLE
17-0604877 17 SUMMERFIELD DR Jun 28 2017 11:01:06:280AM CIVIL MATTER
17-0604876 17-07492 715 INGRAM ST Jun 28 2017 10:58:11:053AM DOMESTIC DISTURBANCE
17-0604873 17-07490 617 4TH AV Jun 28 2017 10:40:54:193AM DISTURBANCE
17-0604872 203 S CENTER ST Jun 28 2017 10:38:50:973AM AGENCY ASSIST
17-0604871 Jun 28 2017 10:37:07:657AM ATTEMPT TO CONTACT
17-0604869 475 ROBINS ST Jun 28 2017 10:26:02:790AM SUPPLEMENT REPORT CALL
17-0604867 1150 WOODSIDE DR Jun 28 2017 10:15:37:697AM SERVING SUBPOENA
17-0604865 605 SALEM RD Jun 28 2017 10:07:58:007AM ALARM
17-0604861 1555 EXCHANGE AV Jun 28 2017 09:42:12:197AM ASSAULT
17-0604859 17-07486 900 CHESTNUT ST Jun 28 2017 09:36:01:267AM ACCIDENT - PROPERTY DAMAGE
17-0604857 450 ROBINS ST Jun 28 2017 09:31:38:353AM SUSPICIOUS PERSON
17-0604855 711 3RD AV Jun 28 2017 09:12:02:153AM SERVING SUBPOENA
17-0604847 701 REEDY RD Jun 28 2017 08:43:34:623AM SERVING SUBPOENA
17-0604846 425 HONEY HILL DR Jun 28 2017 08:43:22:023AM CIVIL STAND BY
17-0604844 467 ELSINGER BLVD Jun 28 2017 08:24:53:660AM ALARM
17-0604842 10 LOWER RIDGE RD Jun 28 2017 08:13:01:077AM CHECKING PERSON
17-0604841 810 TURNER TRL Jun 28 2017 08:07:18:370AM SERVING SUBPOENA
17-0604838 17-07484 1400 E W MARTIN DR Jun 28 2017 07:52:11:900AM K9 SEARCH-REPORT
17-0604836 2590 DONAGHEY AV Jun 28 2017 07:39:14:217AM FRAUD
17-0604834 1402 QUAIL CREEK DR Jun 28 2017 06:54:43:913AM ALARM
17-0604833 450 ROBINS ST Jun 28 2017 05:05:34:213AM TRESPASSING
17-0604831 714 HARKRIDER ST Jun 28 2017 04:00:16:587AM CHECKING PERSON
17-0604829 615 ROBINS ST Jun 28 2017 03:41:08:333AM CHECKING PERSON
17-0604827 1410 E OAK ST Jun 28 2017 03:23:19:477AM CHECKING PERSON
17-0604826 256 OAK ST Jun 28 2017 03:12:07:340AM CHECKING PERSON
17-0604825 818 4TH ST Jun 28 2017 02:48:57:747AM CHECKING VEHICLE
17-0604824 400 FACTORY ST Jun 28 2017 02:38:50:777AM CHECKING PERSON
17-0604823 5010 LONGWALL DR Jun 28 2017 02:26:28:063AM CHECK ON THE WELFARE
17-0604822 1999 DAVIS ST Jun 28 2017 01:56:29:730AM CHECKING PERSON
17-0604821 2125 HARKRIDER ST Jun 28 2017 01:51:01:663AM CHECKING PERSON
17-0604819 555 COUNTRY CLUB RD Jun 28 2017 01:34:15:713AM ALARM
17-0604815 1313 MCNUTT RD Jun 28 2017 12:21:44:367AM HARASSING COMMUNICATIONS
17-0604813 17-07482 1100 NEAL ST Jun 27 2017 11:51:42:400PM CHECKING PERSON
17-0604812 1600 WASHINGTON AV Jun 27 2017 11:39:01:910PM CHECKING VEHICLE
17-0604810 17-07481 1720 ARDEN LN Jun 27 2017 11:18:41:233PM DOMESTIC DISTURBANCE
17-0604809 1200 FACTORY ST Jun 27 2017 11:16:31:660PM CHECKING PERSON
17-0604805 111 S HWY 365 Jun 27 2017 11:03:39:750PM CIVIL MATTER
17-0604804 2735 MUSCADINE LN Jun 27 2017 11:03:05:243PM RECKLESS DRIVER
17-0604803 150 E OAK ST Jun 27 2017 10:58:30:393PM CHECKING PERSON
17-0604800 475 ROBINS ST Jun 27 2017 10:34:01:087PM SHOTS FIRED
17-0604799 17-07479 1001 SKYLINE DR Jun 27 2017 10:25:16:820PM ACCIDENT - PROPERTY DAMAGE
17-0604798 1000 TURNBERRY DR Jun 27 2017 10:01:53:927PM SUSPICIOUS VEHICLE
17-0604797 1750 PLYMOUTH DR Jun 27 2017 09:58:34:850PM INTOXICATED PERSON
17-0604796 1305 DAVE WARD DR Jun 27 2017 09:50:59:643PM DISTURBANCE
17-0604795 2115 WEEMS ST Jun 27 2017 09:45:58:160PM CHECKING PERSON
17-0604792 1205 DAVE WARD DR Jun 27 2017 09:32:58:493PM SUSPICIOUS PERSON
17-0604790 1917 TORREYSON ST Jun 27 2017 09:07:35:953PM DISTURBANCE
17-0604788 2675 COLLINS DR Jun 27 2017 08:55:03:337PM ATTEMPT TO CONTACT
17-0604786 1815 ARDEN LN Jun 27 2017 08:50:46:573PM AGENCY ASSIST
17-0604785 905 MILL ST Jun 27 2017 08:48:54:683PM SUSPICIOUS PERSON
17-0604784 401 2ND ST Jun 27 2017 08:48:29:750PM SUPPLEMENT REPORT CALL
17-0604781 835 S DONAGHEY AV Jun 27 2017 08:34:26:093PM DISTURBANCE
17-0604780 17-07477 13 SEDGEFIELD DR Jun 27 2017 08:32:51:940PM DOMESTIC DISTURBANCE
17-0604778 17-07476 500 SOUTH GERMAN LN Jun 27 2017 08:24:56:333PM MISDEMEANOR WARRANT SERVICE
17-0604776 618 4TH AV Jun 27 2017 08:23:30:130PM ATTEMPT TO CONTACT
17-0604775 2302 COLLEGE AV Jun 27 2017 08:18:00:927PM DISTURBANCE
17-0604774 1600 CENTENNIAL CLUB DR Jun 27 2017 08:13:08:010PM CIVIL MATTER
17-0604773 1900 DAVE WARD DR Jun 27 2017 08:12:59:900PM AGENCY ASSIST
17-0604771 1325 OLD MORRILTON HWY Jun 27 2017 07:55:13:967PM AGENCY ASSIST
17-0604770 2218 LOOKOUT AV Jun 27 2017 07:47:44:550PM ATTEMPT TO CONTACT
17-0604769 612 CHESTNUT ST Jun 27 2017 07:45:59:340PM ANIMAL BITE
17-0604768 475 ROBINS ST Jun 27 2017 07:38:02:650PM HARASSMENT
17-0604767 17-07475 1570 GARDENIA Jun 27 2017 07:25:00:900PM BURGLARY
17-0604766 4675 OLD MORRILTON HWY Jun 27 2017 07:20:51:830PM CIVIL MATTER
17-0604765 17-07473 604 ROBINS ST Jun 27 2017 07:17:39:180PM HARASSMENT
17-0604764 900 EXCHANGE AV Jun 27 2017 07:11:20:833PM SUPPLEMENT REPORT CALL
17-0604763 17-07474 401 2ND ST Jun 27 2017 07:10:10:327PM HARASSING COMMUNICATIONS
17-0604759 450 ROBINS ST Jun 27 2017 06:54:30:903PM CIVIL STAND BY
17-0604758 1150 JIM'S LN Jun 27 2017 06:52:14:910PM ALARM
17-0604756 17-07471 2125 HARKRIDER ST Jun 27 2017 06:39:14:810PM ACCIDENT - PRIVATE PROPERTY
17-0604755 1155 SKYLINE DR Jun 27 2017 06:38:01:850PM CHECK ON THE WELFARE
17-0604753 1715 E OAK ST Jun 27 2017 06:28:04:193PM ALARM
17-0604752 410 DURHAM ST Jun 27 2017 06:25:35:607PM LOUD NOISE-MUSIC
17-0604751 17-07468 3430 IRBY DR Jun 27 2017 06:08:26:057PM HARASSING COMMUNICATIONS
17-0604750 1250 GIST ST Jun 27 2017 06:06:29:203PM CHECK ON THE WELFARE
17-0604749 17-07470 1325 OLD MORRILTON HWY Jun 27 2017 06:01:41:210PM ACCIDENT - PRIVATE PROPERTY
17-0604748 1200 E DAVE WARD DR Jun 27 2017 05:59:37:743PM STALLED VEHICLE
17-0604747 2420 BROADVIEW AV Jun 27 2017 05:58:07:080PM SUSPICIOUS PERSON
17-0604745 401 2ND ST Jun 27 2017 05:50:29:223PM SUSPICIOUS PERSON
17-0604744 1901 E OAK ST Jun 27 2017 05:44:57:070PM RECKLESS DRIVER
17-0604743 1001 SALEM RD Jun 27 2017 05:43:15:830PM TRAFFIC PROBLEM-CONTROL
17-0604742 17-07469 3900 DAVE WARD DR Jun 27 2017 05:42:39:863PM HARASSMENT
17-0604741 600 SKYLINE DR Jun 27 2017 05:38:04:633PM DOMESTIC DISTURBANCE
17-0604740 5300 SANSON DR Jun 27 2017 05:37:07:460PM ATTEMPT TO CONTACT
17-0604739 1801 ROBINS ST Jun 27 2017 05:37:05:983PM SUSPICIOUS PERSON
17-0604738 1150 JIM'S LN Jun 27 2017 05:28:26:763PM ALARM
17-0604737 3430 IRBY DR Jun 27 2017 05:26:10:887PM HARASSING COMMUNICATIONS
17-0604736 17-07467 900 EXCHANGE AV Jun 27 2017 05:20:36:400PM ACCIDENT - PERSONAL INJURY
17-0604734 17-07466 1801 TYLER ST Jun 27 2017 05:08:04:850PM ACCIDENT - PROPERTY DAMAGE
17-0604733 1821 TYLER ST Jun 27 2017 05:08:02:200PM ACCIDENT - PROPERTY DAMAGE
17-0604732 4950 ABBEY GAIL DR Jun 27 2017 05:04:56:313PM CRIMINAL MISCHIEF
17-0604731 11 TIMOTHY LN Jun 27 2017 05:02:12:380PM CIVIL STAND BY
17-0604727 455 2ND AV Jun 27 2017 04:32:15:470PM SUPPLEMENT REPORT CALL
17-0604726 2100 SALEM RD Jun 27 2017 04:31:12:977PM RECKLESS DRIVER
17-0604724 17-07464 700 EAST GERMAN LN Jun 27 2017 04:27:38:687PM ACCIDENT - PROPERTY DAMAGE
17-0604722 1900 TYLER ST Jun 27 2017 04:19:15:440PM MISSING PERSON
17-0604721 600 ELSINGER BLVD Jun 27 2017 04:16:49:500PM SUPPLEMENT REPORT CALL
17-0604719 2010 WASHINGTON AV Jun 27 2017 04:06:00:687PM FOUND PROPERTY
17-0604718 17-07463 400 HARKRIDER ST Jun 27 2017 03:57:27:203PM ACCIDENT - HIT AND RUN
17-0604714 127 I40WB Jun 27 2017 03:42:46:030PM CHECKING PERSON
17-0604713 127 I40EB Jun 27 2017 03:39:45:880PM CHECKING PERSON
17-0604712 200 WILLOW ST Jun 27 2017 03:39:09:837PM CHECK ON THE WELFARE
17-0604711 475 ROBINS ST Jun 27 2017 03:31:41:023PM ATTEMPT TO CONTACT
17-0604705 145 MERLOT DR Jun 27 2017 03:13:24:550PM ALARM
17-0604703 433 HELEN ST Jun 27 2017 03:00:17:157PM SUSPICIOUS VEHICLE
17-0604702 10 LOWER RIDGE RD Jun 27 2017 02:55:53:200PM CHECK ON THE WELFARE
17-0604700 17-07460 28 FRANCES DR Jun 27 2017 02:52:13:900PM FRAUD
17-0604699 831 NUTTERS CHAPEL RD Jun 27 2017 02:46:01:737PM FRAUD
17-0604698 545 SKYLINE DR Jun 27 2017 02:44:18:273PM CHECKING PERSON
17-0604697 17-07462 1065 CLAYTON ST Jun 27 2017 02:36:33:180PM CRIMINAL MISCHIEF
17-0604696 605 SALEM RD Jun 27 2017 02:36:32:187PM DISTURBANCE
17-0604694 17-07457 1622 SCOTT ST Jun 27 2017 02:30:16:450PM ABUSE
17-0604693 17-07459 51 AZALEA LP Jun 27 2017 02:29:53:300PM THEFT OF SERVICES
17-0604691 1900 SCOTT ST Jun 27 2017 02:27:51:060PM CHECKING PERSON
17-0604689 400 INGRAM ST Jun 27 2017 02:26:53:293PM CHECKING PERSON
17-0604688 1355 EXCHANGE AV Jun 27 2017 02:15:06:357PM CIVIL MATTER
17-0604684 475 ROBINS ST Jun 27 2017 02:02:09:550PM ATTEMPT TO CONTACT
17-0604682 1155 CUMULUS DR Jun 27 2017 02:00:05:443PM ATTEMPT TO CONTACT
17-0604675 475 ROBINS ST Jun 27 2017 01:28:57:057PM CRIMINAL MISCHIEF
17-0604673 2730 DAVE WARD DR Jun 27 2017 01:20:34:217PM ATTEMPT TO CONTACT
17-0604672 1400 CALDWELL ST Jun 27 2017 01:16:27:593PM CHECK ON THE WELFARE
17-0604671 17-07456 509 2ND AV Jun 27 2017 01:13:57:613PM DOMESTIC DISTURBANCE
17-0604670 17-07455 504 E OAK ST Jun 27 2017 01:13:20:750PM ACCIDENT - PROPERTY DAMAGE
17-0604669 2515 W MARTIN ST Jun 27 2017 01:03:41:520PM BREAKING OR ENTERING
17-0604667 17-07465 1215 E OAK ST Jun 27 2017 12:45:59:817PM MISDEMEANOR WARRANT SERVICE
17-0604665 17-07454 7 EVERGREEN DR Jun 27 2017 12:43:54:120PM FRAUD
17-0604664 3034 DONNELL RIDGE RD Jun 27 2017 12:43:04:433PM CIVIL MATTER
17-0604663 1155 CUMULUS DR Jun 27 2017 12:40:33:277PM SUSPICIOUS PERSON
17-0604662 17-07453 655 DAVE WARD DR Jun 27 2017 12:39:50:657PM ACCIDENT - PROPERTY DAMAGE
17-0604661 500 OAK ST Jun 27 2017 12:35:27:310PM DISTURBANCE
17-0604660 2100 CALDWELL ST Jun 27 2017 12:25:22:430PM TRAFFIC LIGHT PROBLEM
17-0604659 525 SPRUCE ST Jun 27 2017 12:19:18:293PM CHECK ON THE WELFARE
17-0604658 17-07451 701 4TH AV Jun 27 2017 12:19:15:120PM ATTEMPT TO CONTACT
17-0604653 17-07450 1655 OLD MORRILTON HWY Jun 27 2017 11:51:45:907AM ACCIDENT - PERSONAL INJURY
17-0604652 1105 SKYLINE DR Jun 27 2017 11:49:03:980AM CHECK ON THE WELFARE
17-0604649 17-07449 627 5TH AV Jun 27 2017 11:32:29:867AM BURGLARY
17-0604647 721 FRONT ST Jun 27 2017 11:28:20:210AM SUSPICIOUS PERSON
17-0604646 1155 SKYLINE DR Jun 27 2017 11:23:42:597AM CHECK ON THE WELFARE
17-0604645 17-07446 1023 MAIN ST Jun 27 2017 11:07:12:237AM ACCIDENT - PRIVATE PROPERTY
17-0604644 17-07445 1160 HOGAN LN Jun 27 2017 11:04:31:260AM CIVIL MATTER
17-0604643 600 FAIRVIEW ST Jun 27 2017 10:51:24:753AM DISTURBANCE
17-0604642 120 E OAK ST Jun 27 2017 10:43:06:760AM STALLED VEHICLE
17-0604641 17-07444 2515 W MARTIN ST Jun 27 2017 10:41:08:370AM FOUND PROPERTY
17-0604640 2501 DAVE WARD DR Jun 27 2017 10:36:04:807AM RECKLESS DRIVER
17-0604633 1400 ROBINSON AV Jun 27 2017 09:47:09:053AM CIVIL MATTER
17-0604630 10 LOWER RIDGE RD Jun 27 2017 09:36:23:467AM FRAUD
17-0604628 1178 MITCHELL ST Jun 27 2017 09:35:11:277AM RUNAWAY
17-0604627 1701 STURGIS RD Jun 27 2017 09:25:44:100AM FELONY WARRANT SERVICE
17-0604626 701 4TH AV Jun 27 2017 09:23:24:797AM TRESPASSING
17-0604624 17-07443 300 EXCHANGE AV Jun 27 2017 09:12:33:747AM CRIMINAL MISCHIEF
17-0604622 475 ROBINS ST Jun 27 2017 09:03:21:733AM ATTEMPT TO CONTACT
17-0604618 2302 COLLEGE AV Jun 27 2017 08:27:17:120AM DISTURBANCE
17-0604617 1750 VILLAGE COMMONS DR Jun 27 2017 08:25:38:190AM FRAUD
17-0604616 2400 DONAGHEY AV Jun 27 2017 08:17:00:020AM STALLED VEHICLE
17-0604615 2740 YORK LN Jun 27 2017 08:06:39:277AM DOMESTIC DISTURBANCE
17-0604608 2270 MEADOWLAKE RD Jun 27 2017 07:06:22:050AM REPOSSESSION
17-0604606 1159 HARRISON ST Jun 27 2017 07:01:06:520AM REPOSSESSION
17-0604602 4630 HARDWOOD DR Jun 27 2017 06:52:41:407AM SUSPICIOUS VEHICLE
17-0604601 300 MILDRED ST Jun 27 2017 06:47:16:703AM ABANDONED VEHICLE
17-0604600 17-07442 2219 STOUT ST Jun 27 2017 06:37:05:337AM MISDEMEANOR WARRANT SERVICE
17-0604597 2730 DAVE WARD DR Jun 27 2017 05:04:56:030AM DISTURBANCE
17-0604596 2125 HARKRIDER ST Jun 27 2017 05:02:46:690AM CHECKING PERSON
17-0604594 17-07441 1155 CUMULUS DR Jun 27 2017 03:24:28:220AM ATTEMPT TO CONTACT
17-0604593 270 E SKYLINE DR Jun 27 2017 02:52:45:427AM ALARM
17-0604592 130 HARKRIDER ST Jun 27 2017 02:43:37:727AM BREAKING OR ENTERING
17-0604591 1155 CUMULUS DR Jun 27 2017 02:42:38:967AM DOMESTIC DISTURBANCE
17-0604590 400 INGRAM ST Jun 27 2017 02:36:34:310AM CHECKING PERSON
17-0604589 2114 BROADVIEW AV Jun 27 2017 01:56:31:390AM SUSPICIOUS PERSON
17-0604587 17-07440 1 MIDDLE RD Jun 27 2017 01:44:53:240AM ABANDONED VEHICLE
17-0604585 2430 SANDERS ST Jun 27 2017 01:22:10:383AM SUSPICIOUS ACTIVITY
17-0604584 701 1ST AV Jun 27 2017 01:22:07:077AM CHECKING VEHICLE
17-0604578 1601 DONAGHEY AV Jun 27 2017 12:04:20:360AM SUSPICIOUS PERSON
17-0604577 2125 HARKRIDER ST Jun 26 2017 11:58:33:547PM TRESPASSING
17-0604576 2108 BROADVIEW AV Jun 26 2017 11:54:35:313PM PROWLER
17-0604574 100 S DAVIS ST Jun 26 2017 11:31:12:450PM AGENCY ASSIST
17-0604571 4980 CANAL PL Jun 26 2017 10:47:04:557PM PROWLER
17-0604570 1601 HOGAN LN Jun 26 2017 10:42:51:583PM CHECK ON THE WELFARE
17-0604569 207 WILLOW ST Jun 26 2017 10:38:20:187PM CRIMINAL MISCHIEF
17-0604568 955 SOUTH GERMAN LN Jun 26 2017 10:36:41:043PM CHECK ON THE WELFARE
17-0604567 2203 TYLER ST Jun 26 2017 10:12:20:113PM CHECK ON THE WELFARE
17-0604566 760 S HOGAN LN Jun 26 2017 09:59:55:063PM CHECK ON THE WELFARE
17-0604565 510 DAVIS ST Jun 26 2017 09:51:24:933PM UNKNOWN TROUBLE
17-0604564 2700 HWY 25 N Jun 26 2017 09:41:43:377PM RECKLESS DRIVER
17-0604561 1105 SKYLINE DR Jun 26 2017 09:37:32:923PM REPOSSESSION
17-0604560 17-07437 1155 CUMULUS DR Jun 26 2017 09:27:27:373PM DISTURBANCE
17-0604559 475 ROBINS ST Jun 26 2017 09:15:12:930PM ACCIDENT - PRIVATE PROPERTY
17-0604557 1740 RACHEL DR Jun 26 2017 09:02:58:550PM DOMESTIC DISTURBANCE
17-0604556 831 CENTER ST Jun 26 2017 08:43:33:383PM ATTEMPT TO CONTACT
17-0604555 2080 BROADVIEW AV Jun 26 2017 08:42:57:733PM DISTURBANCE
17-0604554 1839 TYLER ST Jun 26 2017 08:18:41:783PM DOMESTIC DISTURBANCE
17-0604551 17-07435 2916 IRBY DR Jun 26 2017 08:02:35:930PM CRIMINAL MISCHIEF
17-0604549 17-07434 1440 DAVE WARD DR Jun 26 2017 07:48:09:493PM DISTURBANCE
17-0604548 1105 PRAIRIE ST Jun 26 2017 07:45:59:780PM ATTEMPT TO CONTACT
17-0604547 20 KINLEY DR Jun 26 2017 07:45:25:820PM CRIMINAL MISCHIEF
17-0604544 1985 CAMBRIDGE VILLAGE DR Jun 26 2017 07:35:03:667PM ALARM
17-0604542 1602 ROBINS ST Jun 26 2017 07:31:40:020PM HARASSMENT
17-0604541 25 GLENDALE DR Jun 26 2017 07:29:36:883PM ATTEMPT TO CONTACT
17-0604540 1808 ROBINS ST Jun 26 2017 07:09:34:230PM DISTURBANCE
17-0604538 124 I40EB Jun 26 2017 06:47:36:190PM CHECK ON THE WELFARE
17-0604535 17-07433 1775 OLD MORRILTON HWY Jun 26 2017 06:09:17:330PM THEFT OF PROPERTY
17-0604533 17-07432 2005 HUTTO ST Jun 26 2017 05:50:52:747PM PROPERTY DAMAGE
17-0604532 801 FRONT ST Jun 26 2017 05:39:29:607PM CHECKING PERSON
17-0604530 300 E DAVE WARD DR Jun 26 2017 05:25:45:723PM ACCIDENT - PROPERTY DAMAGE
17-0604529 17-07430 911 S HARKRIDER DR Jun 26 2017 05:21:17:497PM ACCIDENT - PERSONAL INJURY
17-0604528 17-07431 2840 DAVE WARD DR Jun 26 2017 05:08:22:970PM THEFT OF PROPERTY
17-0604527 34 ECHO LN Jun 26 2017 04:58:45:470PM SUPPLEMENT REPORT CALL
17-0604526 601 DAVE WARD DR Jun 26 2017 04:58:30:360PM STALLED VEHICLE
17-0604523 201 SKYLINE DR Jun 26 2017 04:41:34:190PM SUSPICIOUS PERSON
17-0604522 147 COMMERCE RD Jun 26 2017 04:37:54:200PM DOMESTIC DISTURBANCE
17-0604521 17-07429 20 KINLEY DR Jun 26 2017 04:33:29:250PM ACCIDENT - PRIVATE PROPERTY
17-0604520 2570 APPLE BLOSSOM Jun 26 2017 04:31:41:877PM ALARM
17-0604518 17-07428 1901 E OAK ST Jun 26 2017 04:24:36:257PM ACCIDENT - PROPERTY DAMAGE
17-0604517 315 MITCHELL ST Jun 26 2017 04:17:43:550PM 911 HANGUP CALL
17-0604515 17-07427 1400 E DAVE WARD DR Jun 26 2017 04:12:42:940PM ACCIDENT - PROPERTY DAMAGE
17-0604513 815 NORTH CREEK DR Jun 26 2017 04:08:33:057PM VEHICLE TOW
17-0604512 17-07426 501 ELSINGER BLVD Jun 26 2017 04:08:12:733PM ACCIDENT - PRIVATE PROPERTY
17-0604511 150 E OAK ST Jun 26 2017 04:04:45:403PM SUPPLEMENT REPORT CALL
17-0604510 17-07425 1325 OLD MORRILTON HWY Jun 26 2017 04:01:50:397PM ACCIDENT - PRIVATE PROPERTY
17-0604509 25 GLENDALE DR Jun 26 2017 03:57:30:880PM ATTEMPT TO CONTACT
17-0604508 2865 PATRICIA LN Jun 26 2017 03:54:23:500PM AGENCY ASSIST
17-0604507 5165 STOCKTON RD Jun 26 2017 03:41:46:553PM SUPPLEMENT REPORT CALL
17-0604506 Jun 26 2017 03:41:18:050PM ATTEMPT TO CONTACT
17-0604505 17-07424 715 MILAM DR Jun 26 2017 03:33:00:193PM THEFT OF PROPERTY
17-0604504 17-07422 265 S ASH ST Jun 26 2017 03:26:18:307PM ACCIDENT - PERSONAL INJURY
17-0604503 475 ROBINS ST Jun 26 2017 03:25:01:163PM CIVIL MATTER
17-0604501 17-07423 1100 BOB COURTWAY DR Jun 26 2017 03:16:05:530PM HARASSING COMMUNICATIONS
17-0604499 17-07420 500 AMITY RD Jun 26 2017 03:05:34:420PM DISTURBANCE
17-0604498 17-07421 1155 SKYLINE DR Jun 26 2017 03:05:32:737PM ACCIDENT - PRIVATE PROPERTY
17-0604497 2320 WASHINGTON AV Jun 26 2017 02:57:01:770PM TRESPASSING
17-0604496 4675 OLD MORRILTON HWY Jun 26 2017 02:56:01:513PM CIVIL MATTER
17-0604495 Jun 26 2017 02:55:22:673PM HARASSING COMMUNICATIONS
17-0604494 17-07417 1400 E W MARTIN DR Jun 26 2017 02:50:38:367PM K9 SEARCH-REPORT
17-0604493 2330 SANDERS ST Jun 26 2017 02:39:27:920PM DISTURBANCE
17-0604490 475 ROBINS ST Jun 26 2017 02:28:04:293PM CIVIL MATTER
17-0604489 801 ELSINGER BLVD Jun 26 2017 02:27:18:803PM SUSPICIOUS PERSON
17-0604488 17-07415 810 PARKWAY ST Jun 26 2017 02:26:05:710PM MISDEMEANOR WARRANT SERVICE
17-0604485 810 PARKWAY ST Jun 26 2017 02:16:22:313PM SUPPLEMENT REPORT CALL
17-0604484 1140 HARKRIDER ST Jun 26 2017 02:13:58:380PM RECKLESS DRIVER
17-0604483 2805 PEBBLE BEACH DR Jun 26 2017 02:11:29:800PM CHECK ON THE WELFARE
17-0604480 825 4TH AV Jun 26 2017 02:09:09:230PM CHECKING PERSON
17-0604479 3700 DAVE WARD DR Jun 26 2017 01:55:05:790PM STALLED VEHICLE
17-0604478 17-07414 810 PARKWAY ST Jun 26 2017 01:54:43:830PM MISDEMEANOR WARRANT SERVICE
17-0604477 537 2ND AV Jun 26 2017 01:39:43:280PM DISTURBANCE
17-0604476 1310 CLIFTON ST Jun 26 2017 01:38:06:227PM DOMESTIC DISTURBANCE
17-0604475 1345 E OAK ST Jun 26 2017 01:38:04:770PM ALARM - HOLD UP or PANIC
17-0604471 1405 S DONAGHEY AV Jun 26 2017 01:12:23:797PM THEFT OF PROPERTY
17-0604469 17-07412 800 S HARKRIDER DR Jun 26 2017 12:58:57:913PM PROPERTY DAMAGE
17-0604467 17-07413 150 E OAK ST Jun 26 2017 12:44:15:710PM SHOPLIFTING
17-0604466 725 BRISTOL LN Jun 26 2017 12:42:10:390PM SUPPLEMENT REPORT CALL
17-0604461 17-07408 810 PARKWAY ST Jun 26 2017 12:18:16:753PM FOUND PROPERTY
17-0604460 475 ROBINS ST Jun 26 2017 12:17:02:090PM HARASSMENT
17-0604459 17-07410 2500 OLD MORRILTON HWY Jun 26 2017 12:16:54:070PM ACCIDENT - HIT AND RUN
17-0604458 2603 DAVE WARD DR Jun 26 2017 12:11:31:967PM ATTEMPT TO CONTACT
17-0604455 475 ROBINS ST Jun 26 2017 12:00:46:740PM HARASSMENT
17-0604454 2212 TYLER ST Jun 26 2017 11:58:54:483AM SUSPICIOUS PERSON
17-0604453 17-07409 565 2ND AV Jun 26 2017 11:57:15:740AM FOUND PROPERTY
17-0604452 17-07407 1105 SKYLINE DR Jun 26 2017 11:47:39:653AM TRESPASSING
17-0604451 2418 JESSICA DR Jun 26 2017 11:44:05:837AM LOUD NOISE-MUSIC
17-0604449 1111 E OAK ST Jun 26 2017 11:34:27:283AM STALLED VEHICLE
17-0604448 17-07405 1101 OLD MORRILTON HWY Jun 26 2017 11:27:57:593AM SUSPICIOUS PERSON
17-0604447 1839 TYLER ST Jun 26 2017 11:20:08:700AM HARASSMENT
17-0604446 17-07400 220 E OAK ST Jun 26 2017 11:19:39:183AM FORGERY
17-0604445 17-07402 1105 SKYLINE DR Jun 26 2017 11:12:46:590AM FORGERY
17-0604444 17-07403 2125 DAVE WARD DR Jun 26 2017 11:09:40:357AM FRAUD
17-0604443 17-07404 708 OAK ST Jun 26 2017 11:07:19:987AM CIVIL MATTER
17-0604442 17-07398 855 AMITY RD Jun 26 2017 11:04:05:093AM THEFT OF IDENTITY
17-0604441 17-07399 1250 S AMITY RD Jun 26 2017 11:03:45:150AM THEFT OF PROPERTY
17-0604440 17-07406 2270 MEADOWLAKE RD Jun 26 2017 11:03:23:240AM CRIMINAL MISCHIEF
17-0604438 4315 TREE HOUSE DR Jun 26 2017 10:52:37:260AM CRIMINAL MISCHIEF
17-0604435 17-07393 599 4TH AV Jun 26 2017 10:27:37:700AM CRIMINAL MISCHIEF
17-0604431 501 ELSINGER BLVD Jun 26 2017 10:19:01:607AM TRESPASSING
17-0604430 320 S MITCHELL ST Jun 26 2017 10:15:09:483AM HARASSMENT
17-0604429 17-07395 2840 DAVE WARD DR Jun 26 2017 10:11:33:230AM ATTEMPT TO CONTACT
17-0604428 17-07391 2550 PRINCE ST Jun 26 2017 10:09:06:123AM FRAUD
17-0604425 17-07396 725 BRISTOL LN Jun 26 2017 10:04:22:730AM BREAKING OR ENTERING
17-0604422 1622 BRUCE ST Jun 26 2017 09:59:32:017AM SUPPLEMENT REPORT CALL
17-0604418 3055 PEBBLE BEACH DR Jun 26 2017 09:36:39:380AM REPOSSESSION
17-0604415 1360 TORREYSON ST Jun 26 2017 09:33:11:313AM ATTEMPT TO CONTACT
17-0604413 1234 MAIN ST Jun 26 2017 09:19:17:333AM ATTEMPT TO CONTACT
17-0604412 2455 DONAGHEY AV Jun 26 2017 09:16:33:193AM HARASSMENT
17-0604409 1700 WASHINGTON AV Jun 26 2017 08:58:42:490AM STALLED VEHICLE
17-0604407 17-07390 1623 WESTLAKE DR Jun 26 2017 08:29:01:600AM ACCIDENT - PRIVATE PROPERTY
17-0604406 4950 ABBEY GAIL DR Jun 26 2017 08:22:57:160AM ALARM
17-0604399 1010 E OAK ST Jun 26 2017 07:37:48:627AM SUSPICIOUS PERSON
17-0604398 17-07389 801 HOGAN LN Jun 26 2017 07:37:04:473AM ACCIDENT - PRIVATE PROPERTY
17-0604397 816 E OAK ST Jun 26 2017 06:45:19:760AM SUPPLEMENT REPORT CALL
17-0604396 1835 TYLER ST Jun 26 2017 06:26:47:653AM SUPPLEMENT REPORT CALL
17-0604395 1623 WESTLAKE DR Jun 26 2017 06:13:12:810AM REPOSSESSION
17-0604391 1702 COLLEGE AV Jun 26 2017 03:19:36:933AM CHECKING PERSON
17-0604390 2370 SANDERS ST Jun 26 2017 03:09:03:207AM CIVIL MATTER
17-0604388 1700 MUSEUM RD Jun 26 2017 02:48:08:927AM CHECKING VEHICLE
17-0604386 17-07388 816 E OAK ST Jun 26 2017 02:14:39:900AM FRAUD
17-0604384 2215 DAVE WARD DR Jun 26 2017 01:54:51:727AM UNKNOWN TROUBLE
17-0604381 1950 ERBACH ST Jun 26 2017 01:25:17:663AM LOUD NOISE-MUSIC
17-0604380 1520 OLD MORRILTON HWY Jun 26 2017 01:10:18:753AM OPEN DOOR/WINDOW/FENCE
17-0604379 930 WINGATE DR Jun 26 2017 12:33:16:903AM SHOTS FIRED
17-0604378 22 KENSINGTON DR Jun 26 2017 12:33:16:810AM SHOTS FIRED
17-0604376 4330 RALEIGH DR Jun 26 2017 12:18:56:323AM CHECKING VEHICLE
17-0604375 1045 RIO GRANDE RD Jun 26 2017 12:14:31:437AM ATTEMPT TO CONTACT
17-0604374 700 ELSINGER BLVD Jun 26 2017 12:09:49:423AM ALARM - HOLD UP or PANIC
17-0604373 1720 S SALEM RD Jun 26 2017 12:03:25:147AM LOUD NOISE-MUSIC
17-0604370 835 2ND AV Jun 25 2017 11:34:16:800PM SUPPLEMENT REPORT CALL
17-0604369 1001 MCNUTT RD Jun 25 2017 11:22:06:417PM CHECKING PERSON
17-0604367 17-07386 201 SKYLINE DR Jun 25 2017 11:16:12:440PM CHECKING VEHICLE
17-0604366 1 CADRON SETTLEMENT PARK RD Jun 25 2017 10:52:32:710PM CHECKING BUILDING
17-0604364 835 S DONAGHEY AV Jun 25 2017 10:15:54:383PM VEHICLE TOW
17-0604363 2002 MARTIN ST Jun 25 2017 09:56:08:243PM SHOTS FIRED
17-0604362 2270 MEADOWLAKE RD Jun 25 2017 09:48:00:227PM CHECK ON THE WELFARE
17-0604361 450 SKYLINE DR Jun 25 2017 09:45:12:097PM ENDANGERING WELFARE OF MINOR
17-0604360 17-07385 835 2ND AV Jun 25 2017 09:40:41:460PM ROBBERY
17-0604359 2010 RICH SMITH LN Jun 25 2017 09:36:32:000PM REPOSSESSION
17-0604358 1325 MUSEUM RD Jun 25 2017 09:35:55:730PM SUPPLEMENT REPORT CALL
17-0604357 17-07384 1010 MAIN ST Jun 25 2017 09:33:05:860PM TRESPASSING
17-0604356 2400 DONAGHEY AV Jun 25 2017 09:31:31:910PM RECKLESS DRIVER
17-0604355 1 S HAMPTON CV Jun 25 2017 09:22:21:860PM ENDANGERING WELFARE OF MINOR
17-0604354 2310 ROBINSON AV Jun 25 2017 09:15:33:893PM MISSING PERSON
17-0604353 701 GARLAND ST Jun 25 2017 09:08:18:310PM CHECK ON THE WELFARE
17-0604352 4655 THOMPSON ST Jun 25 2017 09:05:05:217PM CHECK ON THE WELFARE
17-0604350 1380 CHAMPIONS DR Jun 25 2017 08:49:08:450PM CITIZEN ASSIST
17-0604349 1105 SKYLINE DR Jun 25 2017 08:47:17:810PM DOMESTIC DISTURBANCE
17-0604345 17-07383 401 2ND ST Jun 25 2017 08:27:25:227PM BATTERY REPORT
17-0604344 1118 GUM ST Jun 25 2017 08:10:58:910PM THEFT OF PROPERTY
17-0604343 201 SKYLINE DR Jun 25 2017 08:01:55:270PM ALARM
17-0604342 17 WASSON RD Jun 25 2017 08:00:40:690PM LOUD NOISE-MUSIC
17-0604341 335 WEDGEWOOD PT Jun 25 2017 07:49:32:830PM ALARM
17-0604340 17-07381 2730 BLANEY HILL RD Jun 25 2017 07:47:59:727PM ACCIDENT - PROPERTY DAMAGE
17-0604338 AZALEA LP Jun 25 2017 07:36:03:487PM INTOXICATED DRIVER
17-0604337 855 SALEM RD Jun 25 2017 07:27:32:913PM VEHICLE TOW
17-0604335 475 ROBINS ST Jun 25 2017 07:10:54:990PM ATTEMPT TO CONTACT
17-0604334 1325 MUSEUM RD Jun 25 2017 07:10:24:467PM SUPPLEMENT REPORT CALL
17-0604333 5355 FOWLER DR Jun 25 2017 07:03:33:173PM HARASSING COMMUNICATIONS
17-0604332 501 ELSINGER BLVD Jun 25 2017 07:00:38:413PM TRESPASSING
17-0604331 17-07378 1017 WATKINS ST Jun 25 2017 06:41:11:880PM DISTURBANCE
17-0604330 2610 ROBINSON AV Jun 25 2017 06:36:04:877PM ALARM
17-0604329 1325 OLD MORRILTON HWY Jun 25 2017 06:28:12:573PM CHECK ON THE WELFARE
17-0604328 475 ROBINS ST Jun 25 2017 06:25:24:173PM HARASSMENT
17-0604327 605 DAVE WARD DR Jun 25 2017 06:07:36:253PM ALARM
17-0604326 Jun 25 2017 06:02:13:500PM SUPPLEMENT REPORT CALL
17-0604325 2480 APPLE BLOSSOM Jun 25 2017 05:54:42:847PM ALARM - HOLD UP or PANIC
17-0604324 1510 GOLD FALLS Jun 25 2017 05:45:51:910PM CHECK ON THE WELFARE
17-0604323 17-07380 831 CENTER ST Jun 25 2017 05:44:35:403PM LOST PROPERTY
17-0604322 365 ASH ST Jun 25 2017 05:43:28:367PM DOMESTIC DISTURBANCE
17-0604319 3100 IRBY DR Jun 25 2017 05:06:56:640PM CHECKING PERSON
17-0604318 715 MILAM DR Jun 25 2017 04:50:05:593PM THEFT OF PROPERTY
17-0604317 2811 BRUCE ST Jun 25 2017 04:44:03:483PM HARASSMENT
17-0604315 17-07377 1660 ANGELINE DR Jun 25 2017 04:37:22:083PM THEFT OF PROPERTY
17-0604314 515 FIELDSTONE LN Jun 25 2017 04:34:51:100PM ALARM
17-0604313 2400 BRUCE ST Jun 25 2017 04:33:10:833PM THEFT OF PROPERTY
17-0604311 20 KINLEY DR Jun 25 2017 04:16:26:547PM PARKING VIOLATION
17-0604310 1105 PRAIRIE ST Jun 25 2017 04:08:17:643PM ATTEMPT TO CONTACT
17-0604308 1122 HUNTER ST Jun 25 2017 03:27:54:420PM CHECKING BUILDING
17-0604306 1212 MARKHAM ST Jun 25 2017 03:16:58:693PM CHECKING BUILDING
17-0604305 1619 DAVIS ST Jun 25 2017 03:07:14:543PM CHECKING BUILDING
17-0604301 17-07375 1925 PAYNE LN Jun 25 2017 02:30:52:820PM CITIZEN ASSIST
17-0604299 17-07374 2050 DAVE WARD DR Jun 25 2017 02:27:09:597PM THEFT OF PROPERTY
17-0604296 801 SOUTH GERMAN LN Jun 25 2017 02:11:42:517PM SERVING SUBPOENA
17-0604295 1611 E OAK ST Jun 25 2017 02:10:54:220PM ATTEMPT TO CONTACT
17-0604294 17-07373 600 SKYLINE DR Jun 25 2017 02:02:01:703PM ABANDONED VEHICLE
17-0604293 1615 E OAK ST Jun 25 2017 01:59:32:130PM DISTURBANCE
17-0604289 855 SALEM RD Jun 25 2017 01:30:32:293PM TRESPASSING
17-0604284 1611 E OAK ST Jun 25 2017 01:05:41:510PM SERVING SUBPOENA
17-0604282 17-07372 1325 MUSEUM RD Jun 25 2017 12:49:42:323PM BREAKING OR ENTERING
17-0604281 1955 KEATHLEY DR Jun 25 2017 12:47:28:043PM UNKNOWN TROUBLE
17-0604280 475 ROBINS ST Jun 25 2017 12:43:31:133PM SERVING SUBPOENA
17-0604279 475 ROBINS ST Jun 25 2017 12:42:48:907PM SERVING SUBPOENA
17-0604278 475 E ROBINS ST Jun 25 2017 12:38:53:597PM SERVING SUBPOENA
17-0604276 600 SKYLINE DR Jun 25 2017 12:20:50:780PM STALLED VEHICLE
17-0604275 1845 HAIRSTON AV Jun 25 2017 12:16:39:637PM MISDEMEANOR WARRANT SERVICE
17-0604274 475 ROBINS ST Jun 25 2017 12:07:28:433PM HARASSMENT
17-0604272 2875 GULFSHORE DR Jun 25 2017 11:42:07:473AM ALARM
17-0604271 1325 MUSEUM RD Jun 25 2017 11:33:07:243AM SUPPLEMENT REPORT CALL
17-0604268 5170 STOCKTON RD Jun 25 2017 11:11:29:080AM SUPPLEMENT REPORT CALL
17-0604267 400 S HARKRIDER DR Jun 25 2017 11:02:55:493AM ALARM
17-0604265 800 S DONAGHEY AV Jun 25 2017 10:50:10:783AM TRAFFIC LIGHT PROBLEM
17-0604264 2360 SANDERS ST Jun 25 2017 10:23:51:083AM DOMESTIC DISTURBANCE
17-0604263 1445 CHAMPIONS DR Jun 25 2017 10:05:45:003AM SERVING SUBPOENA
17-0604259 1875 INDEPENDENCE AV Jun 25 2017 09:37:35:590AM SERVING SUBPOENA
17-0604256 140 EVE LN Jun 25 2017 09:02:08:157AM CHECKING VEHICLE
17-0604255 800 MUSEUM RD Jun 25 2017 09:01:52:690AM ALARM
17-0604253 2125 HARKRIDER ST Jun 25 2017 08:47:50:277AM TRESPASSING
17-0604251 1210 KIRKLAND DR Jun 25 2017 08:41:48:097AM CHECKING VEHICLE
17-0604250 820 BROWNSTONE DR Jun 25 2017 08:41:14:090AM BREAKING OR ENTERING
17-0604249 905 SALEM RD Jun 25 2017 08:40:54:680AM TRESPASSING
17-0604248 700 HUNTINGTON LN Jun 25 2017 08:39:24:507AM BREAKING OR ENTERING
17-0604247 5255 BROWNING DR Jun 25 2017 08:38:49:783AM CHECKING VEHICLE
17-0604246 5375 SANSON DR Jun 25 2017 08:36:22:467AM BREAKING OR ENTERING
17-0604245 5335 SANSON DR Jun 25 2017 08:30:44:783AM CHECKING VEHICLE
17-0604244 5215 STOCKTON RD Jun 25 2017 08:22:38:720AM BREAKING OR ENTERING
17-0604243 5205 STOCKTON RD Jun 25 2017 08:17:38:663AM BREAKING OR ENTERING
17-0604242 5155 STOCKTON RD Jun 25 2017 08:10:22:130AM BREAKING OR ENTERING
17-0604241 17-07371 5170 STOCKTON RD Jun 25 2017 07:58:55:747AM BREAKING OR ENTERING
17-0604240 855 SALEM RD Jun 25 2017 07:55:44:167AM CHECK ON THE WELFARE
17-0604239 705 E SIEBENMORGEN RD Jun 25 2017 07:50:43:857AM ALARM
17-0604238 920 CRESTLINER DR Jun 25 2017 07:43:19:817AM BREAKING OR ENTERING
17-0604237 17-07370 150 FOUR WINDS DR Jun 25 2017 07:34:56:870AM BREAKING OR ENTERING
17-0604236 29 BLAKE LN Jun 25 2017 07:34:46:500AM REPOSSESSION
17-0604233 925 CRESTLINER DR Jun 25 2017 07:25:52:513AM BREAKING OR ENTERING
17-0604232 890 CRESTLINER DR Jun 25 2017 07:19:48:243AM BREAKING OR ENTERING
17-0604231 120 S HARKRIDER DR Jun 25 2017 07:17:03:440AM CHECKING VEHICLE
17-0604230 1325 MUSEUM RD Jun 25 2017 06:52:41:740AM SUPPLEMENT REPORT CALL
17-0604228 17-07369 875 CRESTLINER DR Jun 25 2017 06:43:00:847AM BREAKING OR ENTERING
17-0604226 17-07367 1325 MUSEUM RD Jun 25 2017 05:20:49:310AM FOUND PROPERTY
17-0604225 17-07366 1325 MUSEUM RD Jun 25 2017 05:20:15:540AM BREAKING OR ENTERING
17-0604224 17-07365 1325 MUSEUM RD Jun 25 2017 05:19:28:643AM BREAKING OR ENTERING
17-0604223 1025 PARKWAY ST Jun 25 2017 05:15:44:163AM CHECKING BUILDING
17-0604220 17-07364 824 NORTH CREEK DR Jun 25 2017 03:10:23:143AM CHECKING VEHICLE
17-0604219 1910 CREEKWOOD DR Jun 25 2017 03:09:47:323AM CHECKING VEHICLE
17-0604216 1720 S SALEM RD Jun 25 2017 02:47:02:453AM LOUD NOISE-MUSIC
17-0604213 2507 FREDERICK DR Jun 25 2017 02:36:22:997AM CHECKING VEHICLE
17-0604210 334 DONAGHEY AV Jun 25 2017 02:16:04:710AM LOUD NOISE-MUSIC
17-0604209 17-07362 1090 SKYLINE DR Jun 25 2017 01:45:22:073AM ACCIDENT - PRIVATE PROPERTY
17-0604208 1155 SKYLINE DR Jun 25 2017 01:35:47:223AM SHOTS FIRED
17-0604206 1000 EAST GERMAN LN Jun 25 2017 01:26:09:830AM RECKLESS DRIVER
17-0604203 17-07361 1161 OLD MORRILTON HWY Jun 25 2017 12:05:57:160AM FRAUD
17-0604202 2399 HOGAN LN Jun 25 2017 12:03:14:107AM CHECKING VEHICLE
17-0604201 1 CADRON SETTLEMENT PARK RD Jun 24 2017 11:52:10:400PM CHECKING BUILDING
17-0604200 2900 DAVE WARD DR Jun 24 2017 11:32:11:393PM RECKLESS DRIVER
17-0604199 17-07360 1100 MCNUTT RD Jun 24 2017 11:22:33:163PM SUSPICIOUS VEHICLE
17-0604197 1001 MCNUTT RD Jun 24 2017 11:03:47:033PM RUNAWAY
17-0604196 530 S DONAGHEY AV Jun 24 2017 10:51:04:010PM CHECK ON THE WELFARE
17-0604194 2010 RICH SMITH LN Jun 24 2017 10:43:51:500PM UNKNOWN TROUBLE
17-0604193 2200 MEADOWLAKE RD Jun 24 2017 10:38:02:227PM DISTURBANCE
17-0604191 1701 HAIRSTON AV Jun 24 2017 10:36:00:713PM HARASSMENT
17-0604189 Jun 24 2017 10:23:15:747PM CHECK ON THE WELFARE
17-0604188 100 S DAVIS ST Jun 24 2017 10:11:03:370PM LOUD NOISE-MUSIC
17-0604184 3700 JEANNA DR Jun 24 2017 09:56:14:660PM DISCHARGING FIREWORKS
17-0604183 2585 DONAGHEY AV Jun 24 2017 09:48:15:250PM RECKLESS DRIVER
17-0604182 1800 DAVE WARD DR Jun 24 2017 09:40:31:550PM LOUD NOISE-MUSIC
17-0604180 455 ELSINGER BLVD Jun 24 2017 09:37:45:313PM TRESPASSING
17-0604178 126 HARKRIDER ST Jun 24 2017 09:17:03:947PM FRAUD
17-0604176 1155 FRONT ST Jun 24 2017 09:08:19:997PM CHECKING VEHICLE
17-0604174 1725 CENTENNIAL CLUB DR Jun 24 2017 08:53:38:260PM DISTURBANCE
17-0604173 605 1ST AV Jun 24 2017 08:39:50:163PM SUSPICIOUS PERSON
17-0604172 1 WOODBRIDGE DR Jun 24 2017 08:39:43:753PM TRAFFIC PROBLEM-CONTROL
17-0604170 226 HARKRIDER ST Jun 24 2017 08:13:00:037PM ACCIDENT - PROPERTY DAMAGE
17-0604169 1045 DOODLE CIR Jun 24 2017 08:11:27:877PM ACCIDENT - PRIVATE PROPERTY
17-0604168 17-07357 1100 SKYLINE DR Jun 24 2017 08:03:13:680PM ACCIDENT - PRIVATE PROPERTY
17-0604167 53 MEADOWBROOK DR Jun 24 2017 07:55:05:900PM BREAKING OR ENTERING
17-0604166 420 E OAK ST Jun 24 2017 07:53:12:127PM CHECKING PERSON
17-0604164 17-07356 500 SOUTH GERMAN LN Jun 24 2017 07:51:36:870PM MISDEMEANOR WARRANT SERVICE
17-0604163 17-07355 510 SOUTH GERMAN LN Jun 24 2017 07:47:41:843PM CHECK ON THE WELFARE
17-0604162 3800 COLLEGE AV Jun 24 2017 07:41:46:960PM REPOSSESSION
17-0604161 1025 DOODLE CIR Jun 24 2017 07:33:54:640PM CIVIL STAND BY
17-0604159 17-07354 1450 ROBINS ST Jun 24 2017 07:25:57:043PM BURGLARY
17-0604158 2125 HARKRIDER ST Jun 24 2017 07:22:36:043PM TRESPASSING
17-0604157 2300 HOGAN LN Jun 24 2017 07:22:13:790PM SUSPICIOUS PERSON
17-0604154 1930 DUNCAN ST Jun 24 2017 06:19:31:827PM DISCHARGING FIREWORKS
17-0604152 1585 GARDENIA Jun 24 2017 05:43:12:523PM CHECK ON THE WELFARE
17-0604151 17-07353 201 SKYLINE DR Jun 24 2017 05:42:43:990PM ACCIDENT - PRIVATE PROPERTY
17-0604150 2107 MILLWOOD DR Jun 24 2017 05:36:50:987PM ALARM
17-0604149 2235 E OAK ST Jun 24 2017 05:32:09:540PM CHECK ON THE WELFARE
17-0604148 1155 SKYLINE DR Jun 24 2017 05:07:46:297PM PARKING VIOLATION
17-0604145 150 E OAK ST Jun 24 2017 04:46:06:397PM TRESPASSING
17-0604144 17-07350 2105 DAVE WARD DR Jun 24 2017 04:30:20:140PM ACCIDENT - HIT AND RUN
17-0604143 2470 APPLE BLOSSOM Jun 24 2017 04:24:39:367PM THEFT OF PROPERTY
17-0604141 1620 MIDDLE RD Jun 24 2017 04:17:38:880PM SERVING SUBPOENA
17-0604140 5125 PARKWAY ST Jun 24 2017 04:05:16:633PM SERVING SUBPOENA
17-0604139 1701 HARKRIDER ST Jun 24 2017 03:58:32:867PM ACCIDENT - PROPERTY DAMAGE
17-0604138 1701 HAIRSTON AV Jun 24 2017 03:54:41:240PM SUSPICIOUS PERSON
17-0604136 1503 HAIRSTON AV Jun 24 2017 03:50:30:593PM LOUD NOISE-MUSIC
17-0604135 17-07351 3501 COLLEGE AV Jun 24 2017 03:25:15:760PM THEFT OF PROPERTY
17-0604134 475 ROBINS ST Jun 24 2017 03:20:02:547PM DISTURBANCE
17-0604133 850 SIMON ST Jun 24 2017 03:15:39:707PM ALARM
17-0604132 2890 DAVE WARD DR Jun 24 2017 03:07:13:093PM SERVING SUBPOENA
17-0604131 1001 FRONT ST Jun 24 2017 02:48:16:550PM OPEN DOOR/WINDOW/FENCE
17-0604129 17-07349 475 ROBINS ST Jun 24 2017 02:18:47:170PM BATTERY REPORT
17-0604127 17-07348 500 SOUTH GERMAN LN Jun 24 2017 02:09:45:743PM MISDEMEANOR WARRANT SERVICE
17-0604125 235 FARRIS RD Jun 24 2017 01:54:38:500PM SUPPLEMENT REPORT CALL
17-0604123 1835 OTT MEMORIAL BLVD Jun 24 2017 01:36:41:690PM CHECK ON THE WELFARE
17-0604120 17-07347 500 SOUTH GERMAN LN Jun 24 2017 01:24:09:567PM MISDEMEANOR WARRANT SERVICE
17-0604119 1135 CLARENCE DR Jun 24 2017 01:10:51:867PM CRIMINAL MISCHIEF
17-0604118 3140 VIRGINIA ST Jun 24 2017 01:05:07:357PM DOMESTIC DISTURBANCE
17-0604117 17-07346 1 BRIERWOOD CIR Jun 24 2017 12:50:11:183PM THEFT OF PROPERTY
17-0604115 1900 CLEVELAND AV Jun 24 2017 12:37:02:473PM TRAFFIC PROBLEM-CONTROL
17-0604114 601 ELSINGER BLVD Jun 24 2017 12:33:24:460PM SERVING SUBPOENA
17-0604112 225 OAK ST Jun 24 2017 12:21:34:467PM TRESPASSING
17-0604111 1155 LISA LN Jun 24 2017 12:07:49:393PM ALARM
17-0604109 1601 HOGAN LN Jun 24 2017 11:33:53:383AM CHECK ON THE WELFARE
17-0604107 17-07345 1919 MARTIN ST Jun 24 2017 11:28:40:843AM LOST-STOLEN LICENSE PLATE
17-0604104 1360 TORREYSON ST Jun 24 2017 10:12:41:203AM SUPPLEMENT REPORT CALL
17-0604101 1619 DAVIS ST Jun 24 2017 09:42:48:653AM CHECKING BUILDING
17-0604097 1600 DUKE ST Jun 24 2017 08:45:40:190AM ALARM
17-0604095 1025 DOODLE CIR Jun 24 2017 07:52:09:783AM CIVIL STAND BY
17-0604094 Jun 24 2017 07:09:52:250AM RECOVERED VEHICLE
17-0604093 802 3RD AV Jun 24 2017 06:55:40:613AM ALARM
17-0604092 2125 HARKRIDER ST Jun 24 2017 06:52:28:213AM SUSPICIOUS PERSON
17-0604091 17-07343 1620 MIDDLE RD Jun 24 2017 06:15:31:900AM CHECK ON THE WELFARE
17-0604089 1115 PARKWAY ST Jun 24 2017 05:56:58:310AM TRESPASSING
17-0604087 2270 MEADOWLAKE RD Jun 24 2017 05:18:11:817AM SUSPICIOUS ACTIVITY
17-0604084 545 SKYLINE DR Jun 24 2017 04:07:08:073AM VEHICLE TOW
17-0604083 235 FARRIS RD Jun 24 2017 03:16:52:723AM SUPPLEMENT REPORT CALL
17-0604081 1025 S DONAGHEY AV Jun 24 2017 03:01:54:480AM CHECKING PERSON
17-0604080 11 FAIR OAKS DR Jun 24 2017 02:53:43:970AM ATTEMPT TO CONTACT
17-0604077 1202 CLIFTON ST Jun 24 2017 02:26:29:453AM CHECKING PERSON
17-0604076 1111 MAIN ST Jun 24 2017 02:06:39:567AM ALARM
17-0604075 17-07341 1090 SKYLINE DR Jun 24 2017 01:59:07:020AM DISTURBANCE
17-0604074 17-07340 235 FARRIS RD Jun 24 2017 01:57:33:350AM THEFT OF VEHICLE
17-0604072 2112 ARKANSAS AV Jun 24 2017 01:51:00:500AM OPEN DOOR/WINDOW/FENCE
17-0604071 2100 CHARLIE DAYER DR Jun 24 2017 01:39:05:297AM CHECKING PERSON
17-0604069 17-07339 475 ROBINS ST Jun 24 2017 01:02:15:420AM CHECK ON THE WELFARE
17-0604067 17-07338 2500 OLD MORRILTON HWY Jun 24 2017 12:44:47:327AM ACCIDENT - PROPERTY DAMAGE
17-0604066 867 FENDLEY DR Jun 24 2017 12:35:27:700AM INTOXICATED PERSON
17-0604065 332 S DAVIS ST Jun 24 2017 12:33:13:123AM LOUD NOISE-MUSIC
17-0604064 1601 HOGAN LN Jun 24 2017 12:23:28:770AM DOMESTIC DISTURBANCE
17-0604063 401 2ND ST Jun 24 2017 12:20:59:597AM DOMESTIC DISTURBANCE
17-0604062 2475 WASHINGTON AV Jun 24 2017 12:14:04:630AM CHECKING VEHICLE
17-0604060 2018 CALDWELL ST Jun 24 2017 12:07:51:073AM ALARM
17-0604059 1802 COLLEGE AV Jun 24 2017 12:00:37:287AM CHECKING VEHICLE
17-0604058 150 E OAK ST Jun 23 2017 11:59:15:517PM CHECKING PERSON
17-0604056 200 WILLOW ST Jun 23 2017 11:44:22:510PM LOUD NOISE-MUSIC
17-0604054 1 CADRON SETTLEMENT PARK RD Jun 23 2017 11:29:34:800PM CHECKING BUILDING
17-0604052 1105 PRAIRIE ST Jun 23 2017 11:20:14:140PM CHECKING PERSON
17-0604051 901 E OAK ST Jun 23 2017 10:54:25:567PM ENDANGERING WELFARE OF MINOR
17-0604048 17-07337 475 ROBINS ST Jun 23 2017 10:15:17:273PM THEFT OF PROPERTY
17-0604046 400 HARKRIDER ST Jun 23 2017 10:02:30:673PM INTOXICATED PERSON
17-0604045 1212 MARKHAM ST Jun 23 2017 10:00:20:280PM CHECKING BUILDING
17-0604041 17-07336 816 E OAK ST Jun 23 2017 09:13:23:030PM ACCIDENT - PRIVATE PROPERTY
17-0604040 1611 E OAK ST Jun 23 2017 09:08:33:317PM VEHICLE TOW
17-0604039 17-07335 2021 HAIRSTON AV Jun 23 2017 08:44:06:257PM SUSPICIOUS ACTIVITY
17-0604038 1839 TYLER ST Jun 23 2017 08:21:29:067PM CITIZEN ASSIST
17-0604037 100 BROOKSIDE DR Jun 23 2017 08:08:03:820PM DISTURBANCE
17-0604035 475 ROBINS ST Jun 23 2017 07:53:15:720PM SHOTS FIRED
17-0604033 111 LOWER RIDGE RD Jun 23 2017 07:22:16:207PM TRESPASSING
17-0604032 17-07333 2310 SANDERS ST Jun 23 2017 07:20:49:290PM ACCIDENT - PRIVATE PROPERTY
17-0604029 1218 HAMILTON ST Jun 23 2017 06:58:35:293PM HARASSING COMMUNICATIONS
17-0604027 104 OAKLAWN DR Jun 23 2017 06:36:24:883PM CHECK ON THE WELFARE
17-0604025 1105 PRAIRIE ST Jun 23 2017 06:17:52:210PM ATTEMPT TO CONTACT
17-0604024 201 SKYLINE DR Jun 23 2017 06:02:07:873PM ATTEMPT TO CONTACT
17-0604022 3395 TYLER ST Jun 23 2017 05:43:12:960PM FOUND PROPERTY
17-0604021 17-07332 150 E OAK ST Jun 23 2017 05:30:43:813PM BREAKING OR ENTERING
17-0604020 1903 HOGAN LN Jun 23 2017 05:19:57:797PM PARKING VIOLATION
17-0604019 17-07331 260 SALEM RD Jun 23 2017 05:19:23:377PM ACCIDENT - PROPERTY DAMAGE
17-0604018 550 S AMITY RD Jun 23 2017 05:18:40:623PM TRAFFIC PROBLEM-CONTROL
17-0604017 17-07330 814 E OAK ST Jun 23 2017 05:12:32:437PM ACCIDENT - PROPERTY DAMAGE
17-0604016 17-07329 2425 SANDERS ST Jun 23 2017 04:57:42:697PM SHOPLIFTING
17-0604015 17-07328 580 E DAVE WARD DR Jun 23 2017 04:57:29:210PM ACCIDENT - PROPERTY DAMAGE
17-0604013 17-07327 525 SKYLINE DR Jun 23 2017 04:43:37:527PM SHOPLIFTING
17-0604012 1440 DAVE WARD DR Jun 23 2017 04:41:22:773PM ENDANGERING WELFARE OF MINOR
17-0604011 1220 CLIFTON ST Jun 23 2017 04:38:28:633PM PROPERTY DAMAGE
17-0604010 1802 BERRY PLACE DR Jun 23 2017 04:34:22:950PM VEHICLE TOW
17-0604009 1701 HAIRSTON AV Jun 23 2017 04:33:02:493PM HARASSMENT
17-0604008 17-07325 400 E DAVE WARD DR Jun 23 2017 04:31:13:037PM ACCIDENT - PROPERTY DAMAGE
17-0604007 401 2ND ST Jun 23 2017 04:23:42:507PM THEFT OF PROPERTY
17-0604006 118 HARKRIDER ST Jun 23 2017 04:20:43:087PM ALARM
17-0604004 225 CENTER ST Jun 23 2017 04:14:37:047PM ALARM
17-0604003 5435 WHISTLING STRAITS Jun 23 2017 04:14:09:147PM ALARM
17-0604002 1601 HOGAN LN Jun 23 2017 04:01:43:450PM ATTEMPT TO CONTACT
17-0604001 17-07320 400 E DAVE WARD DR Jun 23 2017 03:57:27:330PM ACCIDENT - PROPERTY DAMAGE
17-0604000 1205 SUNDERLIN PARK DR Jun 23 2017 03:38:42:353PM SUPPLEMENT REPORT CALL
17-0603999 17-07326 2706 BRUCE ST Jun 23 2017 03:27:51:283PM PROPERTY DAMAGE
17-0603998 17-07321 3900 DAVE WARD DR Jun 23 2017 03:26:14:777PM FRAUD
17-0603995 17-07317 475 ROBINS ST Jun 23 2017 03:16:06:847PM CHECK ON THE WELFARE
17-0603994 1155 SKYLINE DR Jun 23 2017 02:53:40:037PM TRESPASSING
17-0603993 3130 PEBBLE BEACH DR Jun 23 2017 02:49:19:847PM CHECK ON THE WELFARE
17-0603990 17-07319 198 COMMERCE RD Jun 23 2017 02:38:39:933PM FRAUD
17-0603989 17-07315 601 DAVE WARD DR Jun 23 2017 02:31:33:430PM ACCIDENT - PROPERTY DAMAGE
17-0603988 3545 BAY BERRY RD Jun 23 2017 02:24:58:210PM DOMESTIC DISTURBANCE
17-0603987 17-07316 2730 DAVE WARD DR Jun 23 2017 02:24:48:857PM BATTERY REPORT
17-0603986 17-07314 1805 OTT MEMORIAL BLVD Jun 23 2017 02:23:00:307PM THEFT OF VEHICLE
17-0603984 100 BROOKSIDE DR Jun 23 2017 01:59:31:993PM HARASSMENT
17-0603983 17-07310 1155 FRONT ST Jun 23 2017 01:53:55:737PM ACCIDENT - PRIVATE PROPERTY
17-0603982 115 ROOSEVELT CIR Jun 23 2017 01:45:54:507PM ALARM
17-0603981 17-07307 1399 SUNSET DR Jun 23 2017 01:45:12:733PM FOUND PROPERTY
17-0603979 621 OAK ST Jun 23 2017 01:42:18:210PM HARASSMENT
17-0603977 17-07308 1209 E OAK ST Jun 23 2017 01:34:53:360PM CHECKING PERSON
17-0603976 17-07313 1600 COUNTRY CLUB RD Jun 23 2017 01:33:55:297PM FOUND PROPERTY
17-0603974 17-07324 2290 REMINGTON RD Jun 23 2017 01:29:37:877PM ATTEMPT TO CONTACT
17-0603973 1875 OTT MEMORIAL BLVD Jun 23 2017 01:27:31:093PM DOMESTIC DISTURBANCE
17-0603971 17-07311 475 ROBINS ST Jun 23 2017 01:25:54:853PM TERRORISTIC THREATENING
17-0603969 2706 BRUCE ST Jun 23 2017 01:21:09:460PM CIVIL MATTER
17-0603968 17-07309 1622 SCOTT ST Jun 23 2017 01:20:59:643PM CHECK ON THE WELFARE
17-0603966 1200 MARKHAM ST Jun 23 2017 12:50:07:353PM CHECKING BUILDING
17-0603964 30 BRIER SPRINGS DR Jun 23 2017 12:42:24:863PM SUPPLEMENT REPORT CALL
17-0603955 17-07305 2550 PRINCE ST Jun 23 2017 11:49:16:557AM CRIMINAL MISCHIEF
17-0603952 127 I40EB Jun 23 2017 11:31:21:657AM ACCIDENT - HIT AND RUN
17-0603951 17-07304 1326 SUNSET DR Jun 23 2017 11:26:31:407AM THEFT OF VEHICLE
17-0603950 490 HOGAN LN Jun 23 2017 11:24:53:717AM FRAUD
17-0603948 1305 MONTANA DR Jun 23 2017 10:47:20:130AM SERVING SUBPOENA
17-0603947 5125 PARK PLACE DR Jun 23 2017 10:41:00:620AM SERVING SUBPOENA
17-0603945 1001 MCNUTT RD Jun 23 2017 10:38:22:670AM SERVING SUBPOENA
17-0603943 4545 OREGON TRL Jun 23 2017 10:32:27:080AM SERVING SUBPOENA
17-0603941 1403 ROBINSON AV Jun 23 2017 10:20:10:210AM ATTEMPT TO CONTACT
17-0603938 2465 GRUMMER LN Jun 23 2017 10:05:15:293AM 911 HANGUP CALL
17-0603937 17-07298 2050 DAVE WARD DR Jun 23 2017 10:01:23:057AM ACCIDENT - PRIVATE PROPERTY
17-0603936 600 E DAVE WARD DR Jun 23 2017 09:50:58:157AM CHECK ON THE WELFARE
17-0603935 17-07297 2125 HARKRIDER ST Jun 23 2017 09:49:38:470AM ACCIDENT - PRIVATE PROPERTY
17-0603934 905 SKYLINE DR Jun 23 2017 09:47:29:480AM DISTURBANCE
17-0603931 17-07294 525 SKYLINE DR Jun 23 2017 09:32:35:840AM DISTURBANCE
17-0603929 17-07296 2050 DAVE WARD DR Jun 23 2017 09:31:18:087AM SHOPLIFTING
17-0603928 2370 SANDERS ST Jun 23 2017 09:25:40:977AM SUPPLEMENT REPORT CALL
17-0603922 17-07291 109 OAKLAWN DR Jun 23 2017 08:59:16:663AM CITIZEN ASSIST
17-0603919 207 WILLOW ST Jun 23 2017 08:49:09:623AM TRESPASSING
17-0603912 490 HOGAN LN Jun 23 2017 07:54:35:440AM ALARM - BANK
17-0603910 850 SIMON ST Jun 23 2017 07:25:54:113AM ALARM
17-0603909 17-07288 1065 CLAYTON ST Jun 23 2017 06:56:34:920AM BREAKING OR ENTERING
17-0603908 118 HARKRIDER ST Jun 23 2017 06:54:25:797AM ALARM
17-0603907 1500 HARKRIDER ST Jun 23 2017 06:29:17:497AM SUSPICIOUS PERSON
17-0603906 3099 SALEM RD Jun 23 2017 04:57:10:907AM CHECK ON THE WELFARE
17-0603905 17-07287 1651 HAIRSTON AV Jun 23 2017 04:44:31:037AM TERRORISTIC THREATENING
17-0603904 1115 E OAK ST Jun 23 2017 04:16:32:747AM ALARM
17-0603900 120 S HARKRIDER DR Jun 23 2017 03:42:09:593AM CHECKING PERSON
17-0603899 1500 HAIRSTON AV Jun 23 2017 03:37:32:533AM CITIZEN ASSIST
17-0603897 475 ROBINS ST Jun 23 2017 03:25:03:150AM DISTURBANCE
17-0603896 17-07286 1775 OLD MORRILTON HWY Jun 23 2017 02:57:46:063AM SHOPLIFTING
17-0603895 41 AZALEA LP Jun 23 2017 02:49:02:850AM SUSPICIOUS VEHICLE
17-0603894 835 S DONAGHEY AV Jun 23 2017 02:41:09:423AM LOUD NOISE-MUSIC
17-0603893 410 6TH ST Jun 23 2017 01:26:27:350AM CHECK ON THE WELFARE
17-0603891 2014 MILLWOOD DR Jun 23 2017 01:01:04:907AM CHECK ON THE WELFARE
17-0603890 801 SOUTH GERMAN LN Jun 23 2017 12:37:49:630AM CHECK ON THE WELFARE
17-0603889 855 E OAK ST Jun 23 2017 12:11:29:287AM ALARM
17-0603888 443 HELEN ST Jun 23 2017 12:03:23:703AM SUSPICIOUS VEHICLE
17-0603887 1440 PYRAMID DR Jun 23 2017 12:00:48:133AM LOUD NOISE-MUSIC
17-0603885 1025 DOODLE CIR Jun 22 2017 11:35:01:550PM BURGLARY
17-0603882 1100 ANDY DR Jun 22 2017 11:18:39:997PM SUSPICIOUS PERSON
17-0603878 1120 EAST GERMAN LN Jun 22 2017 10:53:01:710PM SUSPICIOUS PERSON
17-0603874 1300 BEAN ST Jun 22 2017 10:31:23:100PM CHECKING PERSON
17-0603873 1025 DOODLE CIR Jun 22 2017 10:01:53:100PM SUPPLEMENT REPORT CALL
17-0603871 1405 S DONAGHEY AV Jun 22 2017 09:40:32:600PM PARKING VIOLATION
17-0603867 1985 RICH SMITH LN Jun 22 2017 09:25:49:007PM THEFT OF VEHICLE
17-0603862 3700 DAVE WARD DR Jun 22 2017 08:51:16:917PM RECKLESS DRIVER
17-0603860 1600 WASHINGTON AV Jun 22 2017 08:17:43:697PM STALLED VEHICLE
17-0603859 1619 DAVIS ST Jun 22 2017 08:13:45:550PM SUSPICIOUS ACTIVITY
17-0603858 1155 SKYLINE DR Jun 22 2017 08:10:03:917PM DISTURBANCE
17-0603857 17-07277 550 E DAVE WARD DR Jun 22 2017 07:56:17:550PM ACCIDENT - PROPERTY DAMAGE
17-0603856 810 3RD ST Jun 22 2017 07:54:02:060PM CHECKING PERSON
17-0603855 4615 HAWKINS DR Jun 22 2017 07:49:54:827PM ALARM
17-0603851 1605 E OAK ST Jun 22 2017 07:02:40:650PM ALARM
17-0603848 17-07278 1025 DOODLE CIR Jun 22 2017 06:48:15:227PM THEFT OF PROPERTY
17-0603847 1985 RICH SMITH LN Jun 22 2017 06:45:31:623PM REPOSSESSION
17-0603844 8 HAWTHORNE DR Jun 22 2017 06:29:39:690PM ALARM
17-0603843 475 ROBINS ST Jun 22 2017 06:27:08:087PM UNKNOWN TROUBLE
17-0603842 1622 BRUCE ST Jun 22 2017 06:17:15:270PM DISTURBANCE
17-0603840 17-07276 825 OAK ST Jun 22 2017 05:55:44:490PM ACCIDENT - PROPERTY DAMAGE
17-0603838 1605 E OAK ST Jun 22 2017 05:40:22:380PM ALARM
17-0603836 1100 PRAIRIE ST Jun 22 2017 05:39:07:423PM PURSUIT DRILL
17-0603835 646 S HARKRIDER DR Jun 22 2017 05:27:05:797PM TRAFFIC PROBLEM-CONTROL
17-0603833 17-07274 425 E DAVE WARD DR Jun 22 2017 05:15:02:467PM ACCIDENT - PROPERTY DAMAGE
17-0603831 17-07272 1145 S AMITY RD Jun 22 2017 05:02:42:353PM ACCIDENT - PROPERTY DAMAGE
17-0603830 17-07270 1260 OLD MORRILTON HWY Jun 22 2017 04:55:44:380PM ATTEMPT TO CONTACT
17-0603828 2665 DONAGHEY AV Jun 22 2017 04:47:10:487PM SUSPICIOUS PERSON
17-0603827 17-07275 1620 WESTLAKE DR Jun 22 2017 04:39:37:343PM TERRORISTIC THREATENING
17-0603826 1002 E OAK ST Jun 22 2017 04:36:56:147PM THEFT OF PROPERTY
17-0603825 1802 BERRY PLACE DR Jun 22 2017 04:36:31:993PM SUSPICIOUS VEHICLE
17-0603824 17-07268 2115 WASHINGTON AV Jun 22 2017 04:34:31:593PM ACCIDENT - PRIVATE PROPERTY
17-0603822 1005 E OAK ST Jun 22 2017 04:28:10:157PM ALARM - HOLD UP or PANIC
17-0603821 17-07267 2890 CARL STUART ST Jun 22 2017 04:25:21:530PM ACCIDENT - PROPERTY DAMAGE
17-0603820 17-07269 10 LOWER RIDGE RD Jun 22 2017 04:20:43:633PM ACCIDENT - PRIVATE PROPERTY
17-0603819 1155 SKYLINE DR Jun 22 2017 04:03:40:170PM SUPPLEMENT REPORT CALL
17-0603818 727 FARRIS RD Jun 22 2017 03:55:45:740PM ATTEMPT TO CONTACT
17-0603817 1002 E OAK ST Jun 22 2017 03:48:32:350PM AGENCY ASSIST
17-0603816 600 SKYLINE DR Jun 22 2017 03:46:49:760PM STALLED VEHICLE
17-0603815 17-07263 2900 PRINCE ST Jun 22 2017 03:42:55:397PM ACCIDENT - PROPERTY DAMAGE
17-0603814 17-07266 2200 MEADOWLAKE RD Jun 22 2017 03:41:27:623PM ACCIDENT - PRIVATE PROPERTY
17-0603813 1201 BRUCE ST Jun 22 2017 03:39:30:277PM STALLED VEHICLE
17-0603812 17-07264 1199 MORNINGSIDE DR Jun 22 2017 03:37:56:943PM RECKLESS DRIVER
17-0603811 475 ROBINS ST Jun 22 2017 03:36:49:757PM HARASSMENT
17-0603810 17-07261 1475 HOGAN LN Jun 22 2017 03:30:56:590PM ATTEMPT TO CONTACT
17-0603809 2425 DAVE WARD DR Jun 22 2017 03:28:42:390PM PARKING VIOLATION
17-0603808 317 S ASH ST Jun 22 2017 03:28:01:383PM SUSPICIOUS ACTIVITY
17-0603807 17-07262 2135 HARKRIDER ST Jun 22 2017 03:24:51:090PM ACCIDENT - PERSONAL INJURY
17-0603804 127 I40EB Jun 22 2017 03:12:02:477PM ATTEMPT TO CONTACT
17-0603803 17-07260 1360 TORREYSON ST Jun 22 2017 03:09:37:090PM THEFT OF VEHICLE
17-0603800 17-07258 475 ROBINS ST Jun 22 2017 02:45:00:520PM ARMED SUBJECT
17-0603799 17-07259 2101 COLLEGE AV Jun 22 2017 02:44:59:750PM ACCIDENT - PROPERTY DAMAGE
17-0603797 160 S ASH ST Jun 22 2017 02:42:28:013PM ATTEMPT TO CONTACT
17-0603796 675 AMITY RD Jun 22 2017 02:40:49:200PM STALLED VEHICLE
17-0603795 17-07257 740 S SALEM RD Jun 22 2017 02:27:19:913PM TERRORISTIC THREATENING
17-0603790 920 WINEBERRY RD Jun 22 2017 02:11:58:970PM ALARM
17-0603789 17-07255 150 E SIEBENMORGEN RD Jun 22 2017 01:59:00:097PM ABUSE
17-0603788 1612 CHERRY ST Jun 22 2017 01:51:56:223PM ATTEMPT TO CONTACT
17-0603787 375 MONROE ST Jun 22 2017 01:49:14:430PM AGENCY ASSIST
17-0603786 1632 DONAGHEY AV Jun 22 2017 01:45:46:233PM CIVIL STAND BY
17-0603785 2219 STOUT ST Jun 22 2017 01:41:31:040PM ATTEMPT TO CONTACT
17-0603784 17-07252 1105 PRAIRIE ST Jun 22 2017 01:38:59:047PM AGENCY ASSIST
17-0603783 475 ROBINS ST Jun 22 2017 01:34:39:083PM ATTEMPT TO CONTACT
17-0603780 1155 SKYLINE DR Jun 22 2017 01:16:02:163PM LOST PROPERTY
17-0603779 17-07254 1504 HAIRSTON PL Jun 22 2017 01:15:11:267PM CRIMINAL MISCHIEF
17-0603777 17-07251 1 RED OAK DR Jun 22 2017 01:08:33:877PM BREAKING OR ENTERING
17-0603776 2225 PRINCE ST Jun 22 2017 01:01:59:657PM CHECKING PERSON
17-0603775 502 1ST AV Jun 22 2017 12:59:45:110PM CHECKING PERSON
17-0603768 17-07253 23 WATER OAK DR Jun 22 2017 12:40:45:093PM THEFT OF PROPERTY
17-0603767 475 ROBINS ST Jun 22 2017 12:37:14:657PM ATTEMPT TO CONTACT
17-0603764 17-07250 60 FAIRMONT DR Jun 22 2017 12:06:07:430PM ASSAULT
17-0603763 1904 WASHINGTON AV Jun 22 2017 12:02:46:830PM OPEN DOOR/WINDOW/FENCE
17-0603762 475 ROBINS ST Jun 22 2017 12:01:10:553PM SUPPLEMENT REPORT CALL
17-0603761 17-07249 1701 HAIRSTON AV Jun 22 2017 11:57:59:347AM HARASSMENT
17-0603756 17-07247 1601 HOGAN LN Jun 22 2017 11:20:29:557AM HARASSMENT
17-0603755 2302 COLLEGE AV Jun 22 2017 11:20:02:393AM SERVING SUBPOENA
17-0603753 501 ELSINGER BLVD Jun 22 2017 11:15:32:797AM ENDANGERING WELFARE OF MINOR
17-0603751 245 OAK ST Jun 22 2017 11:14:57:000AM ATTEMPT TO CONTACT
17-0603748 17-07248 600 ELSINGER BLVD Jun 22 2017 11:08:00:893AM THEFT OF PROPERTY
17-0603747 895 OAK ST Jun 22 2017 11:05:23:573AM SERVING SUBPOENA
17-0603746 17-07246 2302 COLLEGE AV Jun 22 2017 10:58:12:320AM LOST PROPERTY
17-0603745 475 ROBINS ST Jun 22 2017 10:57:45:463AM SUPPLEMENT REPORT CALL
17-0603740 1234 MAIN ST Jun 22 2017 10:48:08:840AM SERVING SUBPOENA
17-0603738 1345 WOODSIDE DR Jun 22 2017 10:20:30:803AM SUSPICIOUS VEHICLE
17-0603734 17-07245 1904 HOGAN LN Jun 22 2017 10:01:11:773AM LOST-STOLEN LICENSE PLATE
17-0603732 1105 E OAK ST Jun 22 2017 09:58:40:190AM ALARM - HOLD UP or PANIC
17-0603729 17-07244 1000 E SIEBENMORGEN RD Jun 22 2017 09:43:32:747AM CRIMINAL MISCHIEF
17-0603726 1619 DAVIS ST Jun 22 2017 09:34:21:360AM CHECKING BUILDING
17-0603725 711 3RD AV Jun 22 2017 09:30:18:420AM CIVIL MATTER
17-0603724 313 MILDRED ST Jun 22 2017 09:25:06:450AM ATTEMPT TO CONTACT
17-0603720 305 BRUCE ST Jun 22 2017 09:12:23:400AM CHECKING PERSON
17-0603717 1900 OLD MORRILTON HWY Jun 22 2017 08:54:49:023AM RECKLESS DRIVER
17-0603715 34 ECHO LN Jun 22 2017 08:49:09:617AM THEFT OF VEHICLE
17-0603712 17-07242 1501 HOGAN LN Jun 22 2017 08:32:56:480AM ACCIDENT - PROPERTY DAMAGE
17-0603710 1310 E DAVE WARD DR Jun 22 2017 08:23:36:297AM CIVIL MATTER
17-0603705 17-07240 1105 SKYLINE DR Jun 22 2017 08:02:11:853AM ATTEMPT TO CONTACT
17-0603697 17-07239 1105 SKYLINE DR Jun 22 2017 07:16:32:280AM ATTEMPT TO CONTACT
17-0603696 799 S EAST GERMAN LN Jun 22 2017 06:43:21:783AM STALLED VEHICLE
17-0603695 1105 PRAIRIE ST Jun 22 2017 06:40:38:680AM ATTEMPT TO CONTACT
17-0603693 530 S DONAGHEY AV Jun 22 2017 05:37:34:803AM ATTEMPT TO CONTACT
17-0603691 201 SKYLINE DR Jun 22 2017 04:43:51:453AM ALARM
17-0603690 803 HARKRIDER ST Jun 22 2017 04:26:55:987AM SUSPICIOUS PERSON
17-0603689 20 KINLEY DR Jun 22 2017 04:19:53:453AM ATTEMPT TO CONTACT
17-0603688 1905 PRINCE ST Jun 22 2017 04:19:10:777AM TRAFFIC PROBLEM-CONTROL
17-0603687 1115 E OAK ST Jun 22 2017 04:07:51:203AM ALARM
17-0603684 285 S ASH ST Jun 22 2017 03:35:42:000AM DOMESTIC DISTURBANCE
17-0603682 4550 SAWGRASS CV Jun 22 2017 02:42:54:940AM ALARM
17-0603681 801 4TH AV Jun 22 2017 02:33:23:653AM CHECKING PERSON
17-0603677 500 SOUTH GERMAN LN Jun 22 2017 01:53:53:140AM CHECKING PERSON
17-0603676 805 AMITY RD Jun 22 2017 01:50:55:553AM SUSPICIOUS PERSON
17-0603673 400 6TH ST Jun 22 2017 01:17:16:607AM CHECKING PERSON
17-0603672 20 KINLEY DR Jun 22 2017 01:09:48:890AM CITIZEN ASSIST
17-0603670 1003 MUSEUM RD Jun 22 2017 12:53:58:290AM CHECKING VEHICLE
17-0603666 1360 TORREYSON ST Jun 22 2017 12:20:43:197AM SUPPLEMENT REPORT CALL
17-0603665 17-07237 2125 HARKRIDER ST Jun 22 2017 12:15:14:513AM CHECKING PERSON
17-0603663 901 MAIN ST Jun 22 2017 12:00:08:780AM CHECKING PERSON
17-0603662 1 WASSON RD Jun 21 2017 11:57:37:790PM CHECKING VEHICLE
17-0603660 17-07236 1611 E OAK ST Jun 21 2017 11:53:35:937PM CRIMINAL MISCHIEF
17-0603659 475 ROBINS ST Jun 21 2017 11:49:35:693PM ATTEMPT TO CONTACT
17-0603657 1610 SOUTHERN HILLS DR Jun 21 2017 11:27:26:103PM ATTEMPT TO CONTACT
17-0603656 146 MILL POND RD Jun 21 2017 11:19:50:020PM SUSPICIOUS VEHICLE
17-0603654 1601 HOGAN LN Jun 21 2017 11:09:06:467PM LOUD NOISE-MUSIC
17-0603653 1029 CLIFTON ST Jun 21 2017 10:41:27:080PM LOUD NOISE-MUSIC
17-0603652 17-07235 1360 TORREYSON ST Jun 21 2017 10:36:27:827PM UNAUTHORIZED USE OF MOTOR VEHICLE
17-0603651 17-07234 605 3RD ST Jun 21 2017 10:28:56:920PM HARASSING COMMUNICATIONS
17-0603650 601 ELSINGER BLVD Jun 21 2017 10:19:02:437PM ALARM
17-0603648 201 SKYLINE DR Jun 21 2017 09:42:14:070PM INTOXICATED DRIVER
17-0603647 475 ROBINS ST Jun 21 2017 09:37:27:923PM CIVIL STAND BY
17-0603646 867 FENDLEY DR Jun 21 2017 09:25:33:750PM SUSPICIOUS ACTIVITY
17-0603645 2080 BROADVIEW AV Jun 21 2017 09:22:15:620PM SUSPICIOUS PERSON
17-0603644 2010 RICH SMITH LN Jun 21 2017 09:18:11:700PM SHOTS FIRED
17-0603643 2200 MOUNTAIN PARK RD Jun 21 2017 09:17:57:223PM DISCHARGING FIREWORKS
17-0603641 1155 SKYLINE DR Jun 21 2017 09:14:36:510PM ATTEMPT TO CONTACT
17-0603640 201 SKYLINE DR Jun 21 2017 08:59:08:433PM CRIMINAL MISCHIEF
17-0603638 1705 S SALEM RD Jun 21 2017 08:51:51:320PM SUSPICIOUS PERSON
17-0603636 2152 PRINCE ST Jun 21 2017 08:35:26:550PM CIVIL MATTER
17-0603635 1155 SKYLINE DR Jun 21 2017 08:26:10:170PM DISCHARGING FIREWORKS
17-0603633 17-07233 608 4TH AV Jun 21 2017 08:13:23:080PM BATTERY REPORT
17-0603631 1055 FRENCH DR Jun 21 2017 08:02:50:807PM 911 HANGUP CALL
17-0603630 17-07232 905 SALEM RD Jun 21 2017 07:51:53:580PM ACCIDENT - PRIVATE PROPERTY
17-0603628 100 SKYLINE DR Jun 21 2017 07:48:28:993PM RECKLESS DRIVER
17-0603627 2760 ARROW SMITH LN Jun 21 2017 07:40:55:357PM CIVIL MATTER
17-0603626 501 ELSINGER BLVD Jun 21 2017 07:31:26:183PM SUPPLEMENT REPORT CALL
17-0603625 17-07230 2730 DAVE WARD DR Jun 21 2017 07:30:47:393PM BURGLARY
17-0603624 475 ROBINS ST Jun 21 2017 07:29:26:257PM SUPPLEMENT REPORT CALL
17-0603622 2550 PRINCE ST Jun 21 2017 07:21:43:217PM SHOPLIFTING
17-0603621 17-07229 475 ROBINS ST Jun 21 2017 07:20:52:087PM BATTERY REPORT
17-0603620 17-07228 915 FRONT ST Jun 21 2017 07:02:56:817PM DISTURBANCE
17-0603618 17-07227 545 E DAVE WARD DR Jun 21 2017 06:52:31:150PM ACCIDENT - PROPERTY DAMAGE
17-0603617 17-07226 501 ELSINGER BLVD Jun 21 2017 06:43:39:240PM SHOPLIFTING
17-0603615 3950 DAVE WARD DR Jun 21 2017 06:19:44:547PM FOUND PROPERTY
17-0603613 17-07231 600 S ELIZABETH ST Jun 21 2017 06:12:18:437PM BREAKING OR ENTERING
17-0603612 1501 HOGAN LN Jun 21 2017 06:09:55:630PM CHECK ON THE WELFARE
17-0603611 17-07223 2500 NUTTERS CHAPEL RD Jun 21 2017 05:53:58:353PM ACCIDENT - PROPERTY DAMAGE
17-0603610 1125 GUM ST Jun 21 2017 05:42:19:113PM INTOXICATED PERSON
17-0603609 3305 PRINCE ST Jun 21 2017 05:38:52:937PM ALARM
17-0603608 17-07224 1495 PYRAMID DR Jun 21 2017 05:35:34:977PM RUNAWAY
17-0603607 17-07225 2535 DONAGHEY AV Jun 21 2017 05:29:07:907PM DEATH CALL
17-0603606 855 SALEM RD Jun 21 2017 05:28:46:557PM CHECK ON THE WELFARE
17-0603604 17-07221 1220 CLIFTON ST Jun 21 2017 05:18:10:290PM ACCIDENT - PRIVATE PROPERTY
17-0603603 1101 OLD MORRILTON HWY Jun 21 2017 05:11:51:170PM STALLED VEHICLE
17-0603602 1810 WASHINGTON AV Jun 21 2017 04:49:58:160PM SUSPICIOUS ACTIVITY
17-0603601 17-07220 1155 SKYLINE DR Jun 21 2017 04:45:52:233PM LOST CHILD-FOUND CHILD
17-0603599 17-07219 475 ROBINS ST Jun 21 2017 04:39:53:507PM HARASSMENT
17-0603597 600 LOCUST AV Jun 21 2017 04:35:33:720PM CHECK ON THE WELFARE
17-0603596 825 OAK ST Jun 21 2017 04:24:18:330PM CHECK ON THE WELFARE
17-0603595 1405 S DONAGHEY AV Jun 21 2017 04:16:18:707PM TRESPASSING
17-0603594 17-07216 1201 OLD MORRILTON HWY Jun 21 2017 04:04:59:040PM ACCIDENT - PROPERTY DAMAGE
17-0603593 17-07215 2650 DONAGHEY AV Jun 21 2017 03:59:19:273PM TERRORISTIC THREATENING
17-0603591 1155 SKYLINE DR Jun 21 2017 03:33:28:313PM CHECKING VEHICLE
17-0603590 801 S SALEM RD Jun 21 2017 03:21:35:230PM STALLED VEHICLE
17-0603589 17-07213 1090 SKYLINE DR Jun 21 2017 03:19:14:270PM ACCIDENT - PROPERTY DAMAGE
17-0603588 375 SAVANNAH PARK CIR Jun 21 2017 03:13:01:137PM ALARM
17-0603587 2730 DAVE WARD DR Jun 21 2017 03:11:23:073PM TRESPASSING
17-0603583 678 ELSINGER BLVD Jun 21 2017 02:59:24:810PM FOUND PROPERTY
17-0603582 220 E OAK ST Jun 21 2017 02:55:49:527PM AGENCY ASSIST
17-0603579 2100 DAVE WARD DR Jun 21 2017 02:45:48:340PM RECKLESS DRIVER
17-0603578 1825 E OAK ST Jun 21 2017 02:40:58:070PM ATTEMPT TO CONTACT
17-0603577 320 S MITCHELL ST Jun 21 2017 02:37:58:197PM CHECK ON THE WELFARE
17-0603569 475 ROBINS ST Jun 21 2017 01:57:50:200PM SUPPLEMENT REPORT CALL
17-0603568 475 ROBINS ST Jun 21 2017 01:48:52:140PM CIVIL STAND BY
17-0603566 17-07210 924 MAIN ST Jun 21 2017 01:41:38:010PM THEFT OF PROPERTY
17-0603565 1402 ROBINS ST Jun 21 2017 01:40:32:310PM ATTEMPT TO CONTACT
17-0603564 1010 FAULKNER ST Jun 21 2017 01:38:08:910PM CRIMINAL MISCHIEF
17-0603563 867 FENDLEY DR Jun 21 2017 01:33:05:043PM SUPPLEMENT REPORT CALL
17-0603561 475 ROBINS ST Jun 21 2017 01:26:19:380PM THEFT OF SERVICES
17-0603560 118 HARKRIDER ST Jun 21 2017 01:22:07:870PM ATTEMPT TO CONTACT
17-0603558 17-07211 1265 HARKRIDER ST Jun 21 2017 01:18:18:637PM CIVIL MATTER
17-0603557 17-07209 545 SKYLINE DR Jun 21 2017 01:12:45:070PM PROPERTY DAMAGE
17-0603556 17-07204 1095 SKYLINE DR Jun 21 2017 01:11:05:813PM ATTEMPT TO CONTACT
17-0603554 17-07205 2100 DAVE WARD DR Jun 21 2017 01:05:57:850PM ACCIDENT - PROPERTY DAMAGE
17-0603553 1525 HARDY ST Jun 21 2017 12:56:31:713PM CHECK ON THE WELFARE
17-0603552 17-07208 150 E SIEBENMORGEN RD Jun 21 2017 12:56:26:133PM HARASSING COMMUNICATIONS
17-0603551 1516 WINSTEAD DR Jun 21 2017 12:54:07:670PM SUSPICIOUS VEHICLE
17-0603550 2125 HARKRIDER ST Jun 21 2017 12:51:52:590PM CHECKING PERSON
17-0603549 17-07202 1700 CALDWELL ST Jun 21 2017 12:46:44:590PM ACCIDENT - PROPERTY DAMAGE
17-0603548 1010 MAIN ST Jun 21 2017 12:36:01:267PM CIVIL MATTER
17-0603547 36 THOUSAND OAKS CIR Jun 21 2017 12:33:02:420PM ATTEMPT TO CONTACT
17-0603545 2325 DAVE WARD DR Jun 21 2017 12:14:03:697PM CHECKING PERSON
17-0603544 3900 KENNEDY LN Jun 21 2017 12:09:25:973PM CIVIL STAND BY
17-0603543 17-07198 800 WALNUT ST Jun 21 2017 12:05:47:840PM FRAUD
17-0603542 867 FENDLEY DR Jun 21 2017 12:05:33:047PM SUPPLEMENT REPORT CALL
17-0603541 1900 TYLER ST Jun 21 2017 12:00:19:240PM VEHICLE TOW
17-0603538 17-07201 1618 DAVIS ST Jun 21 2017 11:46:25:370AM ATTEMPT TO CONTACT
17-0603537 17-07197 812 OAK ST Jun 21 2017 11:40:12:020AM ACCIDENT - PRIVATE PROPERTY
17-0603532 17-07195 201 E SIEBENMORGEN RD Jun 21 2017 11:30:38:157AM ACCIDENT - PERSONAL INJURY
17-0603529 1321 BELLEMEADE DR Jun 21 2017 11:19:38:817AM CIVIL MATTER
17-0603524 160 S ASH ST Jun 21 2017 11:10:26:963AM AGENCY ASSIST
17-0603523 18 STONEHEDGE DR Jun 21 2017 11:08:08:870AM ATTEMPT TO CONTACT
17-0603522 1800 DUNCAN ST Jun 21 2017 11:07:40:580AM CHECKING PERSON
17-0603521 1215 E OAK ST Jun 21 2017 11:06:27:577AM TRAFFIC PROBLEM-CONTROL
17-0603519 1720 S SALEM RD Jun 21 2017 11:01:54:027AM HARASSING COMMUNICATIONS
17-0603516 530 S DONAGHEY AV Jun 21 2017 10:54:44:407AM SUPPLEMENT REPORT CALL
17-0603514 17-07194 900 DAVIS ST Jun 21 2017 10:47:03:140AM ATTEMPT TO CONTACT
17-0603511 17-07193 1155 SKYLINE DR Jun 21 2017 10:41:29:740AM THEFT OF PROPERTY
17-0603508 124 I40EB Jun 21 2017 10:38:40:877AM RECKLESS DRIVER
17-0603507 1025 DOODLE CIR Jun 21 2017 10:37:24:697AM CIVIL MATTER
17-0603505 1105 BURROW AV Jun 21 2017 10:33:47:853AM FRAUD
17-0603503 1619 DAVIS ST Jun 21 2017 10:30:55:940AM TRESPASSING
17-0603501 17-07191 1018 CLIFTON ST Jun 21 2017 10:22:42:153AM CRIMINAL MISCHIEF
17-0603499 500 SOUTH GERMAN LN Jun 21 2017 10:03:23:340AM MISDEMEANOR WARRANT SERVICE
17-0603496 500 ELSINGER BLVD Jun 21 2017 09:59:42:533AM ATTEMPT TO CONTACT
17-0603495 600 5TH AV Jun 21 2017 09:59:12:903AM CHECKING VEHICLE
17-0603493 308 S SALEM RD Jun 21 2017 09:52:25:620AM ATTEMPT TO CONTACT
17-0603492 601 ELSINGER BLVD Jun 21 2017 09:50:45:397AM ALARM
17-0603491 530 S DONAGHEY AV Jun 21 2017 09:40:23:633AM CIVIL MATTER
17-0603489 701 4TH AV Jun 21 2017 09:33:53:080AM ATTEMPT TO CONTACT
17-0603488 101 OAK ST Jun 21 2017 09:33:05:817AM CHECKING PERSON
17-0603485 1601 HOGAN LN Jun 21 2017 09:29:35:680AM SUPPLEMENT REPORT CALL
17-0603478 17-07190 1018 CLIFTON ST Jun 21 2017 09:00:33:397AM THEFT OF PROPERTY
17-0603477 2375 DAVE WARD DR Jun 21 2017 08:56:11:320AM ALARM
17-0603476 53 WASSON RD Jun 21 2017 08:55:38:997AM ALARM
17-0603475 2012 ARKANSAS AV Jun 21 2017 08:54:38:803AM ATTEMPT TO CONTACT
17-0603473 207 WILLOW ST Jun 21 2017 08:52:27:583AM CIVIL STAND BY
17-0603472 1224 JERSEY ST Jun 21 2017 08:52:26:433AM SUSPICIOUS PERSON
17-0603471 424 1ST AV Jun 21 2017 08:45:25:527AM STALLED VEHICLE
17-0603469 1000 INGRAM ST Jun 21 2017 08:31:14:280AM SUSPICIOUS ACTIVITY
17-0603467 810 PARKWAY ST Jun 21 2017 08:18:56:910AM ATTEMPT TO CONTACT
17-0603464 76 LAKEVIEW DR Jun 21 2017 08:15:34:310AM THEFT OF PROPERTY
17-0603459 17-07183 867 FENDLEY DR Jun 21 2017 06:56:22:767AM RUNAWAY
17-0603458 17-07182 820 BILL DEAN DR Jun 21 2017 06:47:07:163AM ACCIDENT - PRIVATE PROPERTY
17-0603457 2101 TYLER ST Jun 21 2017 06:41:50:893AM DOMESTIC DISTURBANCE
17-0603456 1018 CLIFTON ST Jun 21 2017 06:38:54:430AM CRIMINAL MISCHIEF
17-0603455 1191 STURGIS RD Jun 21 2017 06:36:20:160AM ALARM
17-0603454 185 GRANDVIEW HEIGHTS DR Jun 21 2017 06:13:10:510AM RUNAWAY
17-0603452 1150 WOODSIDE DR Jun 21 2017 03:41:57:730AM NO CONTACT ORDER VIOLATION
17-0603451 1920 KEATHLEY DR Jun 21 2017 03:37:25:443AM HARASSING COMMUNICATIONS
17-0603450 Jun 21 2017 03:08:56:603AM RECOVERED VEHICLE
17-0603449 905 BROWNSTONE DR Jun 21 2017 03:08:39:743AM REPOSSESSION
17-0603448 17-07181 400 WILLOW ST Jun 21 2017 01:44:50:023AM CHECKING PERSON
17-0603446 1208 JERSEY ST Jun 21 2017 01:42:06:793AM CHECKING VEHICLE
17-0603445 1900 WEEMS ST Jun 21 2017 01:33:27:463AM CHECKING VEHICLE
17-0603444 1000 JIM'S LN Jun 21 2017 01:22:16:040AM CHECKING PERSON
17-0603441 475 ROBINS ST Jun 21 2017 12:55:08:427AM ATTEMPT TO CONTACT
17-0603440 1880 STERLING DR Jun 21 2017 12:47:40:000AM CHECKING VEHICLE
17-0603438 655 ELSINGER BLVD Jun 21 2017 12:33:32:460AM ALARM
17-0603437 3130 PEBBLE BEACH DR Jun 21 2017 12:27:06:987AM LOUD NOISE-MUSIC
17-0603436 2299 E OAK ST Jun 21 2017 12:25:19:773AM RECKLESS DRIVER
17-0603435 825 2ND ST Jun 21 2017 12:19:55:333AM CHECKING VEHICLE
17-0603433 17-07180 500 SOUTH GERMAN LN Jun 21 2017 12:06:50:310AM MISDEMEANOR WARRANT SERVICE
17-0603431 1012 WILLOW ST Jun 20 2017 11:47:13:650PM ARMED SUBJECT
17-0603429 17-07179 20 KINLEY DR Jun 20 2017 11:38:14:720PM LOST PROPERTY
17-0603426 1 CADRON SETTLEMENT PARK RD Jun 20 2017 11:20:30:567PM CHECKING BUILDING
17-0603425 17-07178 816 E OAK ST Jun 20 2017 11:13:35:113PM INTOXICATED PERSON
17-0603422 1775 OLD MORRILTON HWY Jun 20 2017 10:36:36:093PM CHECK ON THE WELFARE
17-0603421 17-07176 1601 HOGAN LN Jun 20 2017 10:31:40:133PM MISSING PERSON
17-0603419 1520 E OAK ST Jun 20 2017 10:27:00:607PM CIVIL MATTER
17-0603418 1105 PRAIRIE ST Jun 20 2017 10:22:55:620PM MISSING PERSON
17-0603416 1290 PYRAMID DR Jun 20 2017 10:02:11:043PM CIVIL MATTER
17-0603415 260 S ASH ST Jun 20 2017 09:58:41:540PM DISCHARGING FIREWORKS
17-0603414 1825 PEARCE ST Jun 20 2017 09:57:31:090PM SUSPICIOUS PERSON
17-0603413 270 S ASH ST Jun 20 2017 09:45:25:910PM SHOTS FIRED
17-0603411 165 FARRIS RD Jun 20 2017 09:40:44:153PM CHECKING PERSON
17-0603410 115 FARRIS RD Jun 20 2017 09:38:10:087PM DISTURBANCE
17-0603409 2112 CALDWELL ST Jun 20 2017 09:32:59:213PM DISTURBANCE
17-0603406 5010 ABBEY GAIL DR Jun 20 2017 09:03:13:813PM ATTEMPT TO CONTACT
17-0603405 17-07175 475 ROBINS ST Jun 20 2017 09:02:49:633PM HARASSMENT
17-0603402 1501 TYLER ST Jun 20 2017 08:51:20:177PM RECKLESS DRIVER
17-0603401 17-07174 1200 MARKHAM ST Jun 20 2017 08:49:24:197PM FOUND PROPERTY
17-0603398 2000 KEATHLEY DR Jun 20 2017 08:32:54:643PM SUSPICIOUS ACTIVITY
17-0603396 1269 DON'S LN Jun 20 2017 08:10:15:800PM AGENCY ASSIST
17-0603395 2500 DAVE WARD DR Jun 20 2017 08:03:13:470PM ALARM - BANK
17-0603394 635 DAVE WARD DR Jun 20 2017 07:53:55:063PM ALARM
17-0603392 5010 ABBEY GAIL DR Jun 20 2017 07:42:05:590PM MISSING PERSON
17-0603391 850 OAK ST Jun 20 2017 07:39:14:713PM CHECK ON THE WELFARE
17-0603390 975 E OAK ST Jun 20 2017 07:24:24:637PM STALLED VEHICLE
17-0603389 1850 E DAVE WARD DR Jun 20 2017 07:16:52:300PM INTOXICATED PERSON
17-0603386 17-07169 254 OAK ST Jun 20 2017 07:07:24:470PM SHOPLIFTING
17-0603385 17-07170 260 SALEM RD Jun 20 2017 07:01:32:887PM ACCIDENT - PROPERTY DAMAGE
17-0603384 1210 E OAK ST Jun 20 2017 06:58:16:753PM ALARM
17-0603383 919 DONAGHEY AV Jun 20 2017 06:54:15:683PM ALARM
17-0603381 17-07172 701 REEDY RD Jun 20 2017 06:42:10:860PM BURGLARY
17-0603380 1601 HOGAN LN Jun 20 2017 06:19:03:040PM VEHICLE TOW
17-0603379 616 4TH AV Jun 20 2017 05:41:43:320PM CRIMINAL MISCHIEF
17-0603378 17-07167 135 SOUTHERLAND RD Jun 20 2017 05:24:21:870PM CIVIL STAND BY
17-0603377 1931 MARTIN ST Jun 20 2017 05:10:43:937PM VEHICLE TOW
17-0603376 2900 DAVE WARD DR Jun 20 2017 04:58:25:250PM STALLED VEHICLE
17-0603375 401 2ND ST Jun 20 2017 04:57:31:080PM PARKING VIOLATION
17-0603373 600 SKYLINE DR Jun 20 2017 04:46:17:840PM TRAFFIC PROBLEM-CONTROL
17-0603371 310 AMITY RD Jun 20 2017 04:31:24:897PM VEHICLE TOW
17-0603370 17-07165 101 OAK ST Jun 20 2017 04:29:20:190PM ACCIDENT - PRIVATE PROPERTY
17-0603368 17-07168 2515 W MARTIN ST Jun 20 2017 04:15:32:330PM THEFT OF VEHICLE
17-0603366 17-07164 850 OAK ST Jun 20 2017 03:38:43:257PM ACCIDENT - PRIVATE PROPERTY
17-0603365 3100 IRBY DR Jun 20 2017 03:31:20:290PM ATTEMPT TO CONTACT
17-0603364 1610 WESTLAKE DR Jun 20 2017 03:25:32:863PM VEHICLE TOW
17-0603363 17-07160 1001 SALEM RD Jun 20 2017 03:23:14:587PM ACCIDENT - PROPERTY DAMAGE
17-0603362 17-07162 2850 PRINCE ST Jun 20 2017 03:18:01:310PM ACCIDENT - PRIVATE PROPERTY
17-0603361 17-07159 1200 DAVE WARD DR Jun 20 2017 03:14:43:230PM ACCIDENT - PROPERTY DAMAGE
17-0603360 17-07161 4550 OLD MORRILTON HWY Jun 20 2017 03:12:09:793PM INTOXICATED PERSON
17-0603359 17-07163 2116 TYLER ST Jun 20 2017 03:08:48:717PM BATTERY REPORT
17-0603358 1001 MCNUTT RD Jun 20 2017 02:57:28:593PM SERVING SUBPOENA
17-0603357 17-07156 600 S HARKRIDER DR Jun 20 2017 02:44:47:810PM ACCIDENT - PROPERTY DAMAGE
17-0603355 17-07158 475 ROBINS ST Jun 20 2017 02:41:32:060PM HARASSING COMMUNICATIONS
17-0603353 17-07157 511 FARRIS RD Jun 20 2017 02:38:51:730PM ACCIDENT - PROPERTY DAMAGE
17-0603352 2116 TYLER ST Jun 20 2017 02:38:42:497PM CIVIL MATTER
17-0603351 1495 APPALACHAIN DR Jun 20 2017 02:37:10:280PM CIVIL STAND BY
17-0603350 2805 PRINCE ST Jun 20 2017 02:30:02:073PM CIVIL MATTER
17-0603349 2125 HARKRIDER ST Jun 20 2017 02:24:59:780PM REPOSSESSION
17-0603348 2940 PRINCE ST Jun 20 2017 02:21:04:300PM ALARM - HOLD UP or PANIC
17-0603346 2100 DAVE WARD DR Jun 20 2017 01:59:59:587PM RECKLESS DRIVER
17-0603345 17-07155 461 HARKRIDER ST Jun 20 2017 01:56:26:373PM ACCIDENT - PROPERTY DAMAGE
17-0603343 475 ROBINS ST Jun 20 2017 01:44:18:587PM CIVIL STAND BY
17-0603342 17-07153 475 ROBINS ST Jun 20 2017 01:30:41:523PM THEFT OF PROPERTY
17-0603338 17-07152 1105 SKYLINE DR Jun 20 2017 01:14:38:167PM ACCIDENT - PROPERTY DAMAGE
17-0603337 1155 SKYLINE DR Jun 20 2017 01:02:34:687PM STALLED VEHICLE
17-0603335 17-07150 151 SKYLINE DR Jun 20 2017 12:48:08:800PM ACCIDENT - PROPERTY DAMAGE
17-0603333 17-07151 1105 DEER ST Jun 20 2017 12:37:38:187PM THEFT OF PROPERTY
17-0603330 17-07147 1506 HAIRSTON PL Jun 20 2017 12:18:56:290PM THEFT OF PROPERTY
17-0603327 2510 JAYME CIR Jun 20 2017 11:51:17:470AM FRAUD
17-0603321 1710 HUTTO ST Jun 20 2017 11:03:47:727AM SUPPLEMENT REPORT CALL
17-0603320 1355 EXCHANGE AV Jun 20 2017 11:03:00:243AM CHECK ON THE WELFARE
17-0603317 17-07146 401 2ND ST Jun 20 2017 10:39:36:083AM DOMESTIC DISTURBANCE
17-0603307 17-07144 475 ROBINS ST Jun 20 2017 09:53:07:033AM THEFT OF VEHICLE
17-0603305 1555 EXCHANGE AV Jun 20 2017 09:49:23:430AM TRESPASSING
17-0603299 17-07143 1144 CLIFTON ST Jun 20 2017 09:13:04:880AM BREAKING OR ENTERING
17-0603297 1930 RICH SMITH LN Jun 20 2017 09:11:44:207AM HARASSMENT
17-0603296 17-07289 1600 WASHINGTON AV Jun 20 2017 09:01:32:023AM THEFT OF PROPERTY
17-0603294 1201 EXCHANGE AV Jun 20 2017 08:36:36:190AM TRESPASSING
17-0603293 17-07142 801 HOGAN LN Jun 20 2017 08:31:41:430AM ACCIDENT - PROPERTY DAMAGE
17-0603292 902 DONAGHEY AV Jun 20 2017 08:23:58:717AM STALLED VEHICLE
17-0603290 30 BERNARD DR Jun 20 2017 08:09:49:173AM SUSPICIOUS VEHICLE
17-0603289 254 OAK ST Jun 20 2017 08:07:21:287AM HARASSMENT
17-0603287 17-07141 1850 S SALEM RD Jun 20 2017 08:01:29:927AM CHECK ON THE WELFARE
17-0603284 867 FENDLEY DR Jun 20 2017 07:47:57:117AM ATTEMPT TO CONTACT
17-0603282 1275 EXCHANGE AV Jun 20 2017 07:28:17:730AM CHECK ON THE WELFARE
17-0603277 17-07140 466 HARKRIDER ST Jun 20 2017 06:34:10:703AM DOMESTIC DISTURBANCE
17-0603276 1014 MAIN ST Jun 20 2017 06:27:09:127AM ALARM
17-0603275 1201 EXCHANGE AV Jun 20 2017 05:58:12:310AM CHECK ON THE WELFARE
17-0603273 1101 PARKWAY ST Jun 20 2017 04:49:55:077AM BREAKING OR ENTERING
17-0603272 17-07139 1272 SPENCER ST Jun 20 2017 04:22:56:870AM INTOXICATED PERSON
17-0603271 1707 HARDY ST Jun 20 2017 04:05:21:603AM SUSPICIOUS ACTIVITY
17-0603269 1112 OAK ST Jun 20 2017 03:24:33:003AM ATTEMPT TO CONTACT
17-0603268 1122 GUM ST Jun 20 2017 03:24:05:330AM CHECKING BUILDING
17-0603267 1620 HOGAN LN Jun 20 2017 03:21:59:663AM CIVIL STAND BY
17-0603265 2500 DAVE WARD DR Jun 20 2017 03:16:17:023AM BATTERY REPORT
17-0603264 1155 SKYLINE DR Jun 20 2017 03:12:37:040AM CHECK ON THE WELFARE
17-0603262 17-07138 1930 RICH SMITH LN Jun 19 2017 11:56:12:333PM HARASSING COMMUNICATIONS
17-0603261 2420 BROADVIEW AV Jun 19 2017 11:52:38:757PM CHECKING VEHICLE
17-0603259 3035 PEBBLE BEACH DR Jun 19 2017 11:46:56:473PM CHECK ON THE WELFARE
17-0603258 17-07136 500 SOUTH GERMAN LN Jun 19 2017 11:31:14:547PM MISDEMEANOR WARRANT SERVICE
17-0603257 17-07137 905 SKYLINE DR Jun 19 2017 11:17:57:333PM CHECK ON THE WELFARE
17-0603256 1209 E OAK ST Jun 19 2017 11:16:34:570PM CHECKING BUILDING
17-0603253 1200 GRANDVIEW HEIGHTS DR Jun 19 2017 10:59:46:073PM CHECKING VEHICLE
17-0603252 1023 FRONT ST Jun 19 2017 10:59:25:890PM OPEN DOOR/WINDOW/FENCE
17-0603249 1155 FRONT ST Jun 19 2017 10:41:42:410PM CHECKING PERSON
17-0603248 260 SALEM RD Jun 19 2017 10:29:42:803PM CHECKING VEHICLE
17-0603246 605 SALEM RD Jun 19 2017 10:11:04:250PM ALARM
17-0603245 61 MEADOWBROOK DR Jun 19 2017 10:10:59:040PM SHOTS FIRED
17-0603244 604 MERRIMAN ST Jun 19 2017 10:09:27:667PM ALARM
17-0603243 1 CADRON SETTLEMENT PARK RD Jun 19 2017 10:06:25:857PM CHECKING BUILDING
17-0603242 1955 PUMA DR Jun 19 2017 09:59:42:910PM TRESPASSING
17-0603239 1150 BOB COURTWAY DR Jun 19 2017 09:38:43:893PM CHECK ON THE WELFARE
17-0603236 1795 BILL LUCY DR Jun 19 2017 09:13:14:730PM DOMESTIC DISTURBANCE
17-0603235 1769 OLD MORRILTON HWY Jun 19 2017 09:11:43:243PM TRAFFIC PROBLEM-CONTROL
17-0603234 1985 HENRY ST Jun 19 2017 09:11:26:423PM LOUD NOISE-MUSIC
17-0603233 475 ROBINS ST Jun 19 2017 08:53:25:897PM DISTURBANCE
17-0603231 501 HOGAN LN Jun 19 2017 08:38:46:750PM CHECK ON THE WELFARE
17-0603228 4025 IRBY DR Jun 19 2017 08:13:53:700PM RECKLESS DRIVER
17-0603227 332 OLIVER ST Jun 19 2017 08:09:28:873PM 911 HANGUP CALL
17-0603226 1135 ASH ST Jun 19 2017 07:59:37:750PM CHECK ON THE WELFARE
17-0603225 450 E DAVE WARD DR Jun 19 2017 07:49:05:630PM REPOSSESSION
17-0603224 300 MILDRED ST Jun 19 2017 07:40:09:167PM ATTEMPT TO CONTACT
17-0603223 600 ELSINGER BLVD Jun 19 2017 07:37:41:210PM INTOXICATED PERSON
17-0603222 740 CHERUB DR Jun 19 2017 07:35:06:477PM TRESPASSING
17-0603221 2217 STOUT ST Jun 19 2017 07:33:00:293PM SHOTS FIRED
17-0603219 1600 WASHINGTON AV Jun 19 2017 07:28:43:197PM CHECK ON THE WELFARE
17-0603218 17-07134 2399 RAINTREE DR Jun 19 2017 07:25:05:763PM CHECKING PERSON
17-0603216 475 ROBINS ST Jun 19 2017 07:20:22:253PM CIVIL MATTER
17-0603215 1050 JOHN MASON DR Jun 19 2017 07:13:02:970PM CRIMINAL MISCHIEF
17-0603213 1605 E OAK ST Jun 19 2017 07:10:12:683PM ALARM
17-0603212 WHITEHALL DR Jun 19 2017 06:59:04:877PM ATTEMPT TO CONTACT
17-0603211 329 LOCUST AV Jun 19 2017 06:54:55:000PM TRESPASSING
17-0603209 1500 HARKRIDER ST Jun 19 2017 06:23:14:660PM STALLED VEHICLE
17-0603207 17-07133 1200 E DAVE WARD DR Jun 19 2017 06:18:17:730PM ACCIDENT - PROPERTY DAMAGE
17-0603206 17-07132 810 SALEM RD Jun 19 2017 06:04:08:787PM ACCIDENT - PROPERTY DAMAGE
17-0603205 17-07131 205 E OAK ST Jun 19 2017 05:38:57:890PM ACCIDENT - PRIVATE PROPERTY
17-0603204 51 KENSINGTON DR Jun 19 2017 05:06:58:407PM ALARM
17-0603203 17-07130 255 FARRIS RD Jun 19 2017 05:01:59:293PM ACCIDENT - PRIVATE PROPERTY
17-0603201 17-07128 3203 ROBERT'S RD Jun 19 2017 04:54:44:647PM ATTEMPT TO CONTACT
17-0603199 310 AMITY RD Jun 19 2017 04:37:08:670PM ABANDONED VEHICLE
17-0603198 17-07126 2425 SANDERS ST Jun 19 2017 04:28:13:033PM SHOPLIFTING
17-0603197 2164 HARKRIDER ST Jun 19 2017 04:24:59:523PM PROPERTY DAMAGE
17-0603196 100 BROOKSIDE DR Jun 19 2017 04:23:24:377PM FRAUD
17-0603195 1234 MAIN ST Jun 19 2017 04:17:38:147PM DOMESTIC DISTURBANCE
17-0603194 1307 COLLIER DR Jun 19 2017 04:07:11:200PM FRAUD
17-0603193 2270 MEADOWLAKE RD Jun 19 2017 04:00:50:500PM HARASSING COMMUNICATIONS
17-0603191 1105 SKYLINE DR Jun 19 2017 03:45:12:480PM CIVIL MATTER
17-0603190 17-07125 2585 DONAGHEY AV Jun 19 2017 03:39:08:730PM SHOPLIFTING
17-0603188 17-07129 2010 TYLER ST Jun 19 2017 03:33:01:710PM ABANDONED VEHICLE
17-0603187 17-07123 1960 ROBINS ST Jun 19 2017 03:32:18:677PM ACCIDENT - PROPERTY DAMAGE
17-0603186 17-07122 800 S DONAGHEY AV Jun 19 2017 03:28:55:910PM ACCIDENT - PROPERTY DAMAGE
17-0603184 17-07119 1105 PRAIRIE ST Jun 19 2017 03:21:04:673PM MISDEMEANOR WARRANT SERVICE
17-0603182 17-07120 1525 CLIFTON ST Jun 19 2017 03:17:11:673PM ACCIDENT - PRIVATE PROPERTY
17-0603181 230 ASH ST Jun 19 2017 03:09:17:050PM CIVIL STAND BY
17-0603179 17-07118 3202 PRINCE ST Jun 19 2017 02:53:34:997PM ACCIDENT - PROPERTY DAMAGE
17-0603177 1112 OAK ST Jun 19 2017 02:25:20:057PM CIVIL MATTER
17-0603175 3430 IRBY DR Jun 19 2017 02:18:10:607PM HARASSING COMMUNICATIONS
17-0603174 17-07121 2645 DONAGHEY AV Jun 19 2017 02:17:15:687PM HARASSING COMMUNICATIONS
17-0603173 17-07115 127 I40WB Jun 19 2017 01:58:35:733PM ACCIDENT - PROPERTY DAMAGE
17-0603172 127 I40EB Jun 19 2017 01:58:01:763PM STALLED VEHICLE
17-0603171 17-07116 1710 HUTTO ST Jun 19 2017 01:49:58:593PM THEFT OF PROPERTY
17-0603170 3130 PEBBLE BEACH DR Jun 19 2017 01:28:50:537PM CHECK ON THE WELFARE
17-0603169 17-07114 867 FENDLEY DR Jun 19 2017 01:22:40:160PM CRIMINAL MISCHIEF
17-0603168 17-07113 1615 E OAK ST Jun 19 2017 01:16:12:023PM BATTERY REPORT
17-0603166 120 E OAK ST Jun 19 2017 01:11:58:790PM THEFT OF SERVICES
17-0603165 Jun 19 2017 01:10:45:507PM ATTEMPT TO CONTACT
17-0603164 1313 ELM ST Jun 19 2017 01:09:33:663PM ATTEMPT TO CONTACT
17-0603163 418 DURHAM ST Jun 19 2017 01:05:34:633PM ATTEMPT TO CONTACT
17-0603162 825 OAK ST Jun 19 2017 01:03:12:277PM FRAUD
17-0603161 1200 HAMILTON ST Jun 19 2017 01:02:24:757PM ATTEMPT TO CONTACT
17-0603160 107 SHAMROCK DR Jun 19 2017 12:58:51:213PM CITIZEN ASSIST
17-0603159 415 HELEN ST Jun 19 2017 12:44:28:213PM THEFT OF PROPERTY
17-0603158 475 ROBINS ST Jun 19 2017 12:43:37:160PM CIVIL STAND BY
17-0603157 475 ROBINS ST Jun 19 2017 12:30:35:880PM ATTEMPT TO CONTACT
17-0603156 17-07112 1900 HOGAN LN Jun 19 2017 12:29:54:497PM BREAKING OR ENTERING
17-0603155 17-07111 755 ELSINGER BLVD Jun 19 2017 12:25:18:107PM SHOPLIFTING
17-0603154 1145 TRENT DR Jun 19 2017 12:08:38:677PM SUPPLEMENT REPORT CALL
17-0603153 17-07110 2665 DONAGHEY AV Jun 19 2017 12:00:52:187PM THEFT OF PROPERTY
17-0603152 2840 DAVE WARD DR Jun 19 2017 11:58:18:300AM SUPPLEMENT REPORT CALL
17-0603150 3900 DAVE WARD DR Jun 19 2017 11:38:52:213AM RECKLESS DRIVER
17-0603146 17-07109 244 OAK ST Jun 19 2017 11:23:58:280AM THEFT OF PROPERTY
17-0603142 1615 ROBINS ST Jun 19 2017 11:06:55:320AM ATTEMPT TO CONTACT
17-0603141 15216 CHICOT DR Jun 19 2017 11:04:22:297AM ATTEMPT TO CONTACT
17-0603136 1308 OAK ST Jun 19 2017 10:58:14:403AM SHOPLIFTING
17-0603135 205 E OAK ST Jun 19 2017 10:49:44:107AM DISTURBANCE
17-0603134 5145 PARK PLACE DR Jun 19 2017 10:32:28:153AM ALARM
17-0603133 17-07107 1035 SKYLINE DR Jun 19 2017 10:29:55:167AM THEFT OF PROPERTY
17-0603132 330 SALT CAVE DR Jun 19 2017 10:28:37:550AM ATTEMPT TO CONTACT
17-0603131 218 W 13TH ST Jun 19 2017 10:27:30:843AM ATTEMPT TO CONTACT
17-0603130 15 OLD GLORY CT Jun 19 2017 10:24:35:550AM ATTEMPT TO CONTACT
17-0603129 201 SKYLINE DR Jun 19 2017 10:23:14:940AM ALARM - HOLD UP or PANIC
17-0603127 1360 ROBINS ST Jun 19 2017 10:16:56:063AM FRAUD
17-0603124 17-07106 2221 WASHINGTON AV Jun 19 2017 09:56:55:123AM DISTURBANCE
17-0603123 1940 HENRY ST Jun 19 2017 09:53:56:033AM ATTEMPT TO CONTACT
17-0603121 232 HWY 25 N Jun 19 2017 09:46:26:213AM ATTEMPT TO CONTACT
17-0603120 500 SOUTH GERMAN LN Jun 19 2017 09:32:44:667AM ATTEMPT TO CONTACT
17-0603118 17-07105 1900 E DAVE WARD DR Jun 19 2017 09:29:15:287AM ACCIDENT - PROPERTY DAMAGE
17-0603116 208 FAIRWAY DR Jun 19 2017 09:07:56:330AM ATTEMPT TO CONTACT
17-0603115 17-07104 1632 DONAGHEY AV Jun 19 2017 09:00:52:010AM ACCIDENT - PROPERTY DAMAGE
17-0603114 1215 WATKINS ST Jun 19 2017 08:55:11:660AM REPOSSESSION
17-0603113 111 S BARTON Jun 19 2017 08:54:11:530AM ATTEMPT TO CONTACT
17-0603112 1404 HARTJE LN Jun 19 2017 08:44:07:940AM ATTEMPT TO CONTACT
17-0603111 1635 DUKE ST Jun 19 2017 08:36:53:687AM ATTEMPT TO CONTACT
17-0603110 17-07103 850 OAK ST Jun 19 2017 08:33:36:767AM ACCIDENT - PROPERTY DAMAGE
17-0603109 2302 COLLEGE AV Jun 19 2017 08:32:12:570AM DISTURBANCE
17-0603108 1505 SOUTHERN HILLS DR Jun 19 2017 08:27:25:970AM ATTEMPT TO CONTACT
17-0603107 1955 KEATHLEY DR Jun 19 2017 08:12:36:867AM ATTEMPT TO CONTACT
17-0603106 17-07102 701 4TH AV Jun 19 2017 07:41:43:510AM ATTEMPT TO CONTACT
17-0603103 1610 PRINCE ST Jun 19 2017 07:20:29:570AM ALARM
17-0603102 2695 DAVE WARD DR Jun 19 2017 06:56:57:830AM ATTEMPT TO CONTACT
17-0603101 17-07154 504 3RD AV Jun 19 2017 06:47:08:037AM ATTEMPT TO CONTACT
17-0603100 540 UNITED DR Jun 19 2017 06:45:53:260AM ALARM
17-0603099 1435 APPALACHAIN DR Jun 19 2017 06:41:00:463AM ATTEMPT TO CONTACT
17-0603098 916 WATKINS ST Jun 19 2017 06:35:19:320AM ATTEMPT TO CONTACT
17-0603096 3403 ROBERT'S RD Jun 19 2017 06:27:32:030AM ATTEMPT TO CONTACT
17-0603095 2360 QUATTLEBAUM CV Jun 19 2017 06:11:06:547AM ATTEMPT TO CONTACT
17-0603094 2012 ARKANSAS AV Jun 19 2017 06:09:35:553AM ATTEMPT TO CONTACT
17-0603093 507 S EAST 11ST Jun 19 2017 06:06:09:390AM ATTEMPT TO CONTACT
17-0603092 17-07099 150 E OAK ST Jun 19 2017 05:16:46:193AM CHECK ON THE WELFARE
17-0603091 17-07101 1620 MIDDLE RD Jun 19 2017 05:10:33:317AM ACCIDENT - PRIVATE PROPERTY
17-0603090 17-07100 1495 APPALACHAIN DR Jun 19 2017 05:10:06:670AM DOMESTIC DISTURBANCE
17-0603089 816 E OAK ST Jun 19 2017 03:06:39:380AM LOITERING
17-0603088 250 HARKRIDER ST Jun 19 2017 02:37:34:243AM SUSPICIOUS PERSON
17-0603087 1115 E OAK ST Jun 19 2017 02:25:35:823AM ALARM
17-0603086 3100 IRBY DR Jun 19 2017 02:14:21:160AM LOUD NOISE-MUSIC
17-0603084 207 WILLOW ST Jun 19 2017 12:08:57:070AM LOUD NOISE-MUSIC
17-0603083 1111 E OAK ST Jun 19 2017 12:06:46:697AM CITIZEN ASSIST
17-0603082 429 ANGUS ST Jun 19 2017 12:03:22:630AM CHECK ON THE WELFARE
Call Number Case Number Address Call Time Incident Type

General Contacts

POLICE HEADQUARTERS
1105 Prairie Street
Conway, AR 72032

Conway Police Department


  911 (EMERGENCIES ONLY)

  501.450.6120 (non-emergency)

ANONYMOUS TIPS
 Leave a message at 501.450.6135
 Text CONWAY and your tip to 274637 (CRIMES) Click for an Example

   

City of Conway

We, the members of the Conway Police Department, are committed to protecting and serving the citizens of Conway, Arkansas. That is our highest calling, as we pledge to join hands with others in carrying out our sworn duty to uphold the law.

Chief Jody Spradlin

Latest Tweets